Wetterdaten: Freitag, 17.01.2014
Datum Zeit Temp. Aussen +5cm Feuchte Auss Luftdruck Regen Sonnenschein Regendauer UV Solar Windben
17.01.2014 00:00 6,6 C 4,4 C 89 % 998,3 hPa 0,0 l/m 0 min 0 min 0,0 UV-I 0 W/m 15,4 km/h (3 Bft)
17.01.2014 00:02 6,6 C 4,4 C 89 % 998,3 hPa 0,0 l/m 0 min 0 min 0,0 UV-I 0 W/m 5,1 km/h (1 Bft)
17.01.2014 00:04 6,7 C 4,4 C 89 % 998,3 hPa 0,0 l/m 0 min 0 min 0,0 UV-I 0 W/m 7,7 km/h (2 Bft)
17.01.2014 00:06 6,7 C 4,4 C 89 % 998,2 hPa 0,0 l/m 0 min 2 min 0,0 UV-I 0 W/m 10,3 km/h (2 Bft)
17.01.2014 00:08 6,7 C 4,4 C 89 % 998,2 hPa 0,0 l/m 0 min 2 min 0,0 UV-I 0 W/m 7,7 km/h (2 Bft)
17.01.2014 00:10 6,7 C 4,4 C 89 % 998,2 hPa 0,0 l/m 0 min 2 min 0,0 UV-I 0 W/m 5,1 km/h (1 Bft)
17.01.2014 00:12 6,7 C 4,4 C 89 % 998,2 hPa 0,0 l/m 0 min 2 min 0,0 UV-I 0 W/m 12,9 km/h (3 Bft)
17.01.2014 00:14 6,7 C 4,4 C 89 % 998,2 hPa 0,0 l/m 0 min 2 min 0,0 UV-I 0 W/m 12,9 km/h (3 Bft)
17.01.2014 00:16 6,7 C 4,4 C 89 % 998,2 hPa 0,0 l/m 0 min 0 min 0,0 UV-I 0 W/m 5,1 km/h (1 Bft)
17.01.2014 00:18 6,7 C 4,4 C 89 % 998,3 hPa 0,0 l/m 0 min 0 min 0,0 UV-I 0 W/m 7,7 km/h (2 Bft)
17.01.2014 00:20 6,7 C 4,4 C 89 % 998,3 hPa 0,0 l/m 0 min 0 min 0,0 UV-I 0 W/m 10,3 km/h (2 Bft)
17.01.2014 00:22 6,7 C 4,4 C 89 % 998,2 hPa 0,0 l/m 0 min 0 min 0,0 UV-I 0 W/m 5,1 km/h (1 Bft)
17.01.2014 00:24 6,7 C 4,4 C 89 % 998,2 hPa 0,0 l/m 0 min 0 min 0,0 UV-I 0 W/m 7,7 km/h (2 Bft)
17.01.2014 00:26 6,7 C 4,4 C 89 % 998,1 hPa 0,0 l/m 0 min 0 min 0,0 UV-I 0 W/m 12,9 km/h (3 Bft)
17.01.2014 00:28 6,7 C 5,0 C 89 % 998,1 hPa 0,0 l/m 0 min 0 min 0,0 UV-I 0 W/m 12,9 km/h (3 Bft)
17.01.2014 00:30 6,7 C 5,0 C 90 % 998,2 hPa 0,0 l/m 0 min 0 min 0,0 UV-I 0 W/m 12,9 km/h (3 Bft)
17.01.2014 00:32 6,7 C 5,0 C 90 % 998,1 hPa 0,0 l/m 0 min 0 min 0,0 UV-I 0 W/m 15,4 km/h (3 Bft)
17.01.2014 00:34 6,7 C 5,0 C 90 % 998,2 hPa 0,0 l/m 0 min 0 min 0,0 UV-I 0 W/m 7,7 km/h (2 Bft)
17.01.2014 00:36 6,7 C 5,0 C 90 % 998,2 hPa 0,0 l/m 0 min 0 min 0,0 UV-I 0 W/m 10,3 km/h (2 Bft)
17.01.2014 00:38 6,7 C 4,4 C 90 % 998,2 hPa 0,0 l/m 0 min 0 min 0,0 UV-I 0 W/m 2,6 km/h (1 Bft)
17.01.2014 00:40 6,8 C 4,4 C 89 % 998,2 hPa 0,0 l/m 0 min 0 min 0,0 UV-I 0 W/m 15,4 km/h (3 Bft)
17.01.2014 00:42 6,8 C 4,4 C 89 % 998,1 hPa 0,0 l/m 0 min 0 min 0,0 UV-I 0 W/m 20,6 km/h (4 Bft)
17.01.2014 00:44 6,8 C 4,4 C 89 % 998,1 hPa 0,0 l/m 0 min 0 min 0,0 UV-I 0 W/m 20,6 km/h (4 Bft)
17.01.2014 00:46 6,8 C 4,4 C 89 % 998,2 hPa 0,0 l/m 0 min 0 min 0,0 UV-I 0 W/m 18,0 km/h (3 Bft)
17.01.2014 00:48 6,8 C 5,0 C 89 % 998,2 hPa 0,0 l/m 0 min 0 min 0,0 UV-I 0 W/m 12,9 km/h (3 Bft)
17.01.2014 00:50 6,8 C 5,0 C 89 % 998,2 hPa 0,0 l/m 0 min 0 min 0,0 UV-I 0 W/m 10,3 km/h (2 Bft)
17.01.2014 00:52 6,9 C 5,0 C 89 % 998,3 hPa 0,0 l/m 0 min 0 min 0,0 UV-I 0 W/m 12,9 km/h (3 Bft)
17.01.2014 00:54 6,9 C 5,0 C 89 % 998,2 hPa 0,0 l/m 0 min 0 min 0,0 UV-I 0 W/m 7,7 km/h (2 Bft)
17.01.2014 00:56 6,9 C 4,4 C 89 % 998,2 hPa 0,0 l/m 0 min 0 min 0,0 UV-I 0 W/m 15,4 km/h (3 Bft)
17.01.2014 00:58 6,9 C 4,4 C 89 % 998,2 hPa 0,0 l/m 0 min 0 min 0,0 UV-I 0 W/m 7,7 km/h (2 Bft)
17.01.2014 01:00 6,9 C 4,4 C 89 % 998,2 hPa 0,0 l/m 0 min 0 min 0,0 UV-I 0 W/m 15,4 km/h (3 Bft)
17.01.2014 01:02 6,9 C 4,4 C 89 % 998,2 hPa 0,0 l/m 0 min 0 min 0,0 UV-I 0 W/m 12,9 km/h (3 Bft)
17.01.2014 01:04 6,9 C 4,4 C 89 % 998,3 hPa 0,0 l/m 0 min 0 min 0,0 UV-I 0 W/m 18,0 km/h (3 Bft)
17.01.2014 01:06 6,9 C 4,4 C 89 % 998,3 hPa 0,0 l/m 0 min 0 min 0,0 UV-I 0 W/m 7,7 km/h (2 Bft)
17.01.2014 01:08 6,9 C 4,4 C 88 % 998,2 hPa 0,0 l/m 0 min 0 min 0,0 UV-I 0 W/m 0,0 km/h (0 Bft)
17.01.2014 01:10 6,9 C 5,0 C 88 % 998,3 hPa 0,0 l/m 0 min 0 min 0,0 UV-I 0 W/m 10,3 km/h (2 Bft)
17.01.2014 01:12 6,9 C 5,0 C 88 % 998,3 hPa 0,0 l/m 0 min 0 min 0,0 UV-I 0 W/m 10,3 km/h (2 Bft)
17.01.2014 01:14 6,9 C 5,0 C 88 % 998,3 hPa 0,0 l/m 0 min 0 min 0,0 UV-I 0 W/m 7,7 km/h (2 Bft)
17.01.2014 01:16 6,9 C 5,0 C 88 % 998,2 hPa 0,0 l/m 0 min 0 min 0,0 UV-I 0 W/m 15,4 km/h (3 Bft)
17.01.2014 01:18 6,9 C 5,0 C 88 % 998,2 hPa 0,0 l/m 0 min 0 min 0,0 UV-I 0 W/m 18,0 km/h (3 Bft)
17.01.2014 01:20 6,9 C 5,0 C 88 % 998,3 hPa 0,0 l/m 0 min 0 min 0,0 UV-I 0 W/m 15,4 km/h (3 Bft)
17.01.2014 01:22 6,9 C 5,0 C 88 % 998,3 hPa 0,0 l/m 0 min 0 min 0,0 UV-I 0 W/m 10,3 km/h (2 Bft)
17.01.2014 01:24 6,9 C 5,0 C 88 % 998,3 hPa 0,0 l/m 0 min 0 min 0,0 UV-I 0 W/m 10,3 km/h (2 Bft)
17.01.2014 01:26 6,9 C 5,0 C 88 % 998,3 hPa 0,0 l/m 0 min 0 min 0,0 UV-I 0 W/m 18,0 km/h (3 Bft)
17.01.2014 01:28 6,9 C 5,0 C 88 % 998,3 hPa 0,0 l/m 0 min 0 min 0,0 UV-I 0 W/m 7,7 km/h (2 Bft)
17.01.2014 01:30 6,9 C 5,0 C 88 % 998,2 hPa 0,0 l/m 0 min 0 min 0,0 UV-I 0 W/m 15,4 km/h (3 Bft)
17.01.2014 01:32 6,9 C 5,0 C 88 % 998,2 hPa 0,0 l/m 0 min 0 min 0,0 UV-I 0 W/m 7,7 km/h (2 Bft)
17.01.2014 01:34 6,9 C 4,4 C 88 % 998,2 hPa 0,0 l/m 0 min 0 min 0,0 UV-I 0 W/m 12,9 km/h (3 Bft)
17.01.2014 01:36 6,9 C 4,4 C 88 % 998,2 hPa 0,0 l/m 0 min 0 min 0,0 UV-I 0 W/m 10,3 km/h (2 Bft)
17.01.2014 01:38 6,9 C 4,4 C 88 % 998,2 hPa 0,0 l/m 0 min 0 min 0,0 UV-I 0 W/m 10,3 km/h (2 Bft)
17.01.2014 01:40 6,9 C 4,4 C 88 % 998,2 hPa 0,0 l/m 0 min 0 min 0,0 UV-I 0 W/m 12,9 km/h (3 Bft)
17.01.2014 01:42 6,9 C 4,4 C 88 % 998,2 hPa 0,0 l/m 0 min 0 min 0,0 UV-I 0 W/m 12,9 km/h (3 Bft)
17.01.2014 01:44 6,8 C 4,4 C 88 % 998,3 hPa 0,0 l/m 0 min 0 min 0,0 UV-I 0 W/m 10,3 km/h (2 Bft)
17.01.2014 01:46 6,8 C 4,4 C 88 % 998,2 hPa 0,0 l/m 0 min 0 min 0,0 UV-I 0 W/m 12,9 km/h (3 Bft)
17.01.2014 01:48 6,8 C 4,4 C 88 % 998,2 hPa 0,0 l/m 0 min 0 min 0,0 UV-I 0 W/m 12,9 km/h (3 Bft)
17.01.2014 01:50 6,8 C 4,4 C 88 % 998,2 hPa 0,0 l/m 0 min 0 min 0,0 UV-I 0 W/m 12,9 km/h (3 Bft)
17.01.2014 01:52 6,7 C 4,4 C 88 % 998,2 hPa 0,0 l/m 0 min 0 min 0,0 UV-I 0 W/m 15,4 km/h (3 Bft)
17.01.2014 01:54 6,7 C 4,4 C 88 % 998,2 hPa 0,0 l/m 0 min 0 min 0,0 UV-I 0 W/m 10,3 km/h (2 Bft)
17.01.2014 01:56 6,7 C 3,9 C 88 % 998,3 hPa 0,0 l/m 0 min 0 min 0,0 UV-I 0 W/m 10,3 km/h (2 Bft)
17.01.2014 01:58 6,7 C 3,9 C 88 % 998,3 hPa 0,0 l/m 0 min 0 min 0,0 UV-I 0 W/m 7,7 km/h (2 Bft)
17.01.2014 02:00 6,6 C 3,9 C 88 % 998,3 hPa 0,0 l/m 0 min 0 min 0,0 UV-I 0 W/m 7,7 km/h (2 Bft)
17.01.2014 02:02 6,6 C 3,9 C 88 % 998,3 hPa 0,0 l/m 0 min 0 min 0,0 UV-I 0 W/m 15,4 km/h (3 Bft)
17.01.2014 02:04 6,6 C 3,9 C 88 % 998,3 hPa 0,0 l/m 0 min 0 min 0,0 UV-I 0 W/m 10,3 km/h (2 Bft)
17.01.2014 02:06 6,6 C 3,9 C 88 % 998,2 hPa 0,0 l/m 0 min 0 min 0,0 UV-I 0 W/m 10,3 km/h (2 Bft)
17.01.2014 02:08 6,5 C 3,9 C 88 % 998,2 hPa 0,0 l/m 0 min 0 min 0,0 UV-I 0 W/m 10,3 km/h (2 Bft)
17.01.2014 02:10 6,5 C 4,4 C 89 % 998,2 hPa 0,0 l/m 0 min 0 min 0,0 UV-I 0 W/m 10,3 km/h (2 Bft)
17.01.2014 02:12 6,5 C 4,4 C 89 % 998,2 hPa 0,0 l/m 0 min 0 min 0,0 UV-I 0 W/m 5,1 km/h (1 Bft)
17.01.2014 02:14 6,4 C 4,4 C 89 % 998,2 hPa 0,0 l/m 0 min 0 min 0,0 UV-I 0 W/m 7,7 km/h (2 Bft)
17.01.2014 02:16 6,4 C 4,4 C 89 % 998,3 hPa 0,0 l/m 0 min 0 min 0,0 UV-I 0 W/m 7,7 km/h (2 Bft)
17.01.2014 02:18 6,4 C 4,4 C 89 % 998,3 hPa 0,0 l/m 0 min 0 min 0,0 UV-I 0 W/m 7,7 km/h (2 Bft)
17.01.2014 02:20 6,4 C 4,4 C 89 % 998,3 hPa 0,0 l/m 0 min 0 min 0,0 UV-I 0 W/m 12,9 km/h (3 Bft)
17.01.2014 02:22 6,4 C 4,4 C 89 % 998,2 hPa 0,0 l/m 0 min 0 min 0,0 UV-I 0 W/m 10,3 km/h (2 Bft)
17.01.2014 02:24 6,4 C 4,4 C 89 % 998,2 hPa 0,0 l/m 0 min 0 min 0,0 UV-I 0 W/m 7,7 km/h (2 Bft)
17.01.2014 02:26 6,4 C 4,4 C 89 % 998,2 hPa 0,0 l/m 0 min 0 min 0,0 UV-I 0 W/m 7,7 km/h (2 Bft)
17.01.2014 02:28 6,4 C 4,4 C 89 % 998,2 hPa 0,0 l/m 0 min 0 min 0,0 UV-I 0 W/m 7,7 km/h (2 Bft)
17.01.2014 02:30 6,4 C 3,9 C 89 % 998,2 hPa 0,0 l/m 0 min 0 min 0,0 UV-I 0 W/m 5,1 km/h (1 Bft)
17.01.2014 02:32 6,4 C 3,9 C 89 % 998,2 hPa 0,0 l/m 0 min 0 min 0,0 UV-I 0 W/m 5,1 km/h (1 Bft)
17.01.2014 02:34 6,4 C 3,9 C 89 % 998,3 hPa 0,0 l/m 0 min 0 min 0,0 UV-I 0 W/m 10,3 km/h (2 Bft)
17.01.2014 02:36 6,4 C 4,4 C 89 % 998,3 hPa 0,0 l/m 0 min 0 min 0,0 UV-I 0 W/m 7,7 km/h (2 Bft)
17.01.2014 02:38 6,3 C 4,4 C 89 % 998,3 hPa 0,0 l/m 0 min 0 min 0,0 UV-I 0 W/m 5,1 km/h (1 Bft)
17.01.2014 02:40 6,3 C 4,4 C 89 % 998,5 hPa 0,0 l/m 0 min 0 min 0,0 UV-I 0 W/m 5,1 km/h (1 Bft)
17.01.2014 02:42 6,3 C 4,4 C 89 % 998,5 hPa 0,0 l/m 0 min 0 min 0,0 UV-I 0 W/m 7,7 km/h (2 Bft)
17.01.2014 02:44 6,3 C 4,4 C 89 % 998,6 hPa 0,0 l/m 0 min 0 min 0,0 UV-I 0 W/m 5,1 km/h (1 Bft)
17.01.2014 02:46 6,3 C 4,4 C 90 % 998,6 hPa 0,0 l/m 0 min 0 min 0,0 UV-I 0 W/m 5,1 km/h (1 Bft)
17.01.2014 02:48 6,3 C 4,4 C 90 % 998,6 hPa 0,0 l/m 0 min 0 min 0,0 UV-I 0 W/m 7,7 km/h (2 Bft)
17.01.2014 02:50 6,3 C 4,4 C 90 % 998,7 hPa 0,0 l/m 0 min 0 min 0,0 UV-I 0 W/m 5,1 km/h (1 Bft)
17.01.2014 02:52 6,3 C 4,4 C 90 % 998,7 hPa 0,0 l/m 0 min 0 min 0,0 UV-I 0 W/m 7,7 km/h (2 Bft)
17.01.2014 02:54 6,3 C 5,0 C 90 % 998,7 hPa 0,0 l/m 0 min 0 min 0,0 UV-I 0 W/m 7,7 km/h (2 Bft)
17.01.2014 02:56 6,3 C 5,0 C 90 % 998,6 hPa 0,0 l/m 0 min 0 min 0,0 UV-I 0 W/m 7,7 km/h (2 Bft)
17.01.2014 02:58 6,4 C 5,0 C 90 % 998,7 hPa 0,0 l/m 0 min 0 min 0,0 UV-I 0 W/m 10,3 km/h (2 Bft)
17.01.2014 03:00 6,4 C 5,0 C 90 % 998,7 hPa 0,0 l/m 0 min 0 min 0,0 UV-I 0 W/m 12,9 km/h (3 Bft)
17.01.2014 03:02 6,4 C 4,4 C 90 % 998,6 hPa 0,0 l/m 0 min 0 min 0,0 UV-I 0 W/m 7,7 km/h (2 Bft)
17.01.2014 03:04 6,4 C 4,4 C 90 % 998,7 hPa 0,0 l/m 0 min 0 min 0,0 UV-I 0 W/m 7,7 km/h (2 Bft)
17.01.2014 03:06 6,4 C 4,4 C 90 % 998,7 hPa 0,0 l/m 0 min 0 min 0,0 UV-I 0 W/m 10,3 km/h (2 Bft)
17.01.2014 03:08 6,4 C 4,4 C 90 % 998,7 hPa 0,0 l/m 0 min 0 min 0,0 UV-I 0 W/m 10,3 km/h (2 Bft)
17.01.2014 03:10 6,4 C 4,4 C 90 % 998,7 hPa 0,0 l/m 0 min 0 min 0,0 UV-I 0 W/m 12,9 km/h (3 Bft)
17.01.2014 03:12 6,4 C 4,4 C 90 % 998,7 hPa 0,0 l/m 0 min 0 min 0,0 UV-I 0 W/m 12,9 km/h (3 Bft)
17.01.2014 03:14 6,4 C 4,4 C 90 % 998,6 hPa 0,0 l/m 0 min 0 min 0,0 UV-I 0 W/m 12,9 km/h (3 Bft)
17.01.2014 03:16 6,4 C 4,4 C 90 % 998,6 hPa 0,0 l/m 0 min 0 min 0,0 UV-I 0 W/m 12,9 km/h (3 Bft)
17.01.2014 03:18 6,4 C 4,4 C 89 % 998,6 hPa 0,0 l/m 0 min 0 min 0,0 UV-I 0 W/m 12,9 km/h (3 Bft)
17.01.2014 03:20 6,4 C 4,4 C 89 % 998,6 hPa 0,0 l/m 0 min 0 min 0,0 UV-I 0 W/m 12,9 km/h (3 Bft)
17.01.2014 03:22 6,4 C 4,4 C 89 % 998,6 hPa 0,0 l/m 0 min 0 min 0,0 UV-I 0 W/m 12,9 km/h (3 Bft)
17.01.2014 03:24 6,4 C 4,4 C 89 % 998,6 hPa 0,0 l/m 0 min 0 min 0,0 UV-I 0 W/m 10,3 km/h (2 Bft)
17.01.2014 03:26 6,4 C 4,4 C 89 % 998,6 hPa 0,0 l/m 0 min 0 min 0,0 UV-I 0 W/m 10,3 km/h (2 Bft)
17.01.2014 03:28 6,4 C 4,4 C 89 % 998,6 hPa 0,0 l/m 0 min 0 min 0,0 UV-I 0 W/m 18,0 km/h (3 Bft)
17.01.2014 03:30 6,4 C 5,0 C 89 % 998,7 hPa 0,0 l/m 0 min 0 min 0,0 UV-I 0 W/m 18,0 km/h (3 Bft)
17.01.2014 03:32 6,4 C 5,0 C 89 % 998,6 hPa 0,0 l/m 0 min 0 min 0,0 UV-I 0 W/m 10,3 km/h (2 Bft)
17.01.2014 03:34 6,5 C 5,0 C 89 % 998,6 hPa 0,0 l/m 0 min 0 min 0,0 UV-I 0 W/m 5,1 km/h (1 Bft)
17.01.2014 03:36 6,5 C 5,0 C 89 % 998,6 hPa 0,0 l/m 0 min 0 min 0,0 UV-I 0 W/m 20,6 km/h (4 Bft)
17.01.2014 03:38 6,6 C 5,0 C 89 % 998,6 hPa 0,0 l/m 0 min 0 min 0,0 UV-I 0 W/m 7,7 km/h (2 Bft)
17.01.2014 03:40 6,6 C 5,0 C 89 % 998,7 hPa 0,0 l/m 0 min 0 min 0,0 UV-I 0 W/m 12,9 km/h (3 Bft)
17.01.2014 03:42 6,6 C 5,6 C 89 % 998,7 hPa 0,0 l/m 0 min 0 min 0,0 UV-I 0 W/m 18,0 km/h (3 Bft)
17.01.2014 03:44 6,7 C 5,6 C 89 % 998,7 hPa 0,0 l/m 0 min 0 min 0,0 UV-I 0 W/m 15,4 km/h (3 Bft)
17.01.2014 03:46 6,7 C 5,6 C 89 % 998,7 hPa 0,0 l/m 0 min 0 min 0,0 UV-I 0 W/m 12,9 km/h (3 Bft)
17.01.2014 03:48 6,7 C 5,6 C 89 % 998,6 hPa 0,0 l/m 0 min 0 min 0,0 UV-I 0 W/m 12,9 km/h (3 Bft)
17.01.2014 03:50 6,8 C 5,6 C 89 % 998,6 hPa 0,0 l/m 0 min 0 min 0,0 UV-I 0 W/m 12,9 km/h (3 Bft)
17.01.2014 03:52 6,8 C 5,6 C 89 % 998,6 hPa 0,0 l/m 0 min 0 min 0,0 UV-I 0 W/m 10,3 km/h (2 Bft)
17.01.2014 03:54 6,8 C 5,0 C 89 % 998,6 hPa 0,0 l/m 0 min 0 min 0,0 UV-I 0 W/m 18,0 km/h (3 Bft)
17.01.2014 03:56 6,8 C 5,0 C 89 % 998,6 hPa 0,0 l/m 0 min 0 min 0,0 UV-I 0 W/m 28,3 km/h (4 Bft)
17.01.2014 03:58 6,9 C 5,0 C 89 % 998,6 hPa 0,0 l/m 0 min 0 min 0,0 UV-I 0 W/m 10,3 km/h (2 Bft)
17.01.2014 04:00 6,9 C 5,0 C 89 % 998,6 hPa 0,0 l/m 0 min 0 min 0,0 UV-I 0 W/m 18,0 km/h (3 Bft)
17.01.2014 04:05 6,9 C 5,0 C 88 % 998,6 hPa 0,0 l/m 0 min 0 min 0,0 UV-I 0 W/m 18,0 km/h (3 Bft)
17.01.2014 04:06 6,9 C 5,0 C 88 % 998,6 hPa 0,0 l/m 0 min 0 min 0,0 UV-I 0 W/m 12,9 km/h (3 Bft)
17.01.2014 04:08 6,9 C 5,0 C 88 % 998,7 hPa 0,0 l/m 0 min 0 min 0,0 UV-I 0 W/m 18,0 km/h (3 Bft)
17.01.2014 04:10 6,9 C 5,0 C 88 % 998,6 hPa 0,0 l/m 0 min 0 min 0,0 UV-I 0 W/m 10,3 km/h (2 Bft)
17.01.2014 04:12 6,9 C 5,0 C 88 % 998,6 hPa 0,0 l/m 0 min 0 min 0,0 UV-I 0 W/m 18,0 km/h (3 Bft)
17.01.2014 04:14 6,9 C 5,0 C 88 % 998,6 hPa 0,0 l/m 0 min 0 min 0,0 UV-I 0 W/m 20,6 km/h (4 Bft)
17.01.2014 04:16 6,9 C 5,0 C 88 % 998,6 hPa 0,0 l/m 0 min 0 min 0,0 UV-I 0 W/m 15,4 km/h (3 Bft)
17.01.2014 04:18 6,9 C 5,0 C 88 % 998,6 hPa 0,0 l/m 0 min 0 min 0,0 UV-I 0 W/m 12,9 km/h (3 Bft)
17.01.2014 04:20 6,9 C 5,0 C 88 % 998,6 hPa 0,0 l/m 0 min 0 min 0,0 UV-I 0 W/m 18,0 km/h (3 Bft)
17.01.2014 04:22 7,0 C 5,0 C 88 % 998,7 hPa 0,0 l/m 0 min 0 min 0,0 UV-I 0 W/m 15,4 km/h (3 Bft)
17.01.2014 04:24 7,0 C 5,0 C 88 % 998,7 hPa 0,0 l/m 0 min 0 min 0,0 UV-I 0 W/m 20,6 km/h (4 Bft)
17.01.2014 04:26 7,0 C 5,6 C 88 % 998,7 hPa 0,0 l/m 0 min 0 min 0,0 UV-I 0 W/m 15,4 km/h (3 Bft)
17.01.2014 04:28 7,1 C 5,6 C 88 % 998,8 hPa 0,0 l/m 0 min 0 min 0,0 UV-I 0 W/m 12,9 km/h (3 Bft)
17.01.2014 04:30 7,1 C 5,6 C 88 % 998,8 hPa 0,0 l/m 0 min 0 min 0,0 UV-I 0 W/m 12,9 km/h (3 Bft)
17.01.2014 04:32 7,1 C 5,6 C 88 % 998,8 hPa 0,0 l/m 0 min 0 min 0,0 UV-I 0 W/m 12,9 km/h (3 Bft)
17.01.2014 04:34 7,1 C 5,6 C 87 % 998,7 hPa 0,0 l/m 0 min 0 min 0,0 UV-I 0 W/m 15,4 km/h (3 Bft)
17.01.2014 04:36 7,1 C 5,6 C 87 % 998,7 hPa 0,0 l/m 0 min 0 min 0,0 UV-I 0 W/m 18,0 km/h (3 Bft)
17.01.2014 04:38 7,2 C 5,6 C 87 % 998,6 hPa 0,0 l/m 0 min 0 min 0,0 UV-I 0 W/m 7,7 km/h (2 Bft)
17.01.2014 04:40 7,2 C 5,6 C 87 % 998,7 hPa 0,0 l/m 0 min 0 min 0,0 UV-I 0 W/m 23,2 km/h (4 Bft)
17.01.2014 04:42 7,2 C 5,6 C 87 % 998,7 hPa 0,0 l/m 0 min 0 min 0,0 UV-I 0 W/m 18,0 km/h (3 Bft)
17.01.2014 04:44 7,2 C 5,6 C 87 % 998,6 hPa 0,0 l/m 0 min 0 min 0,0 UV-I 0 W/m 20,6 km/h (4 Bft)
17.01.2014 04:46 7,2 C 5,6 C 87 % 998,7 hPa 0,0 l/m 0 min 0 min 0,0 UV-I 0 W/m 20,6 km/h (4 Bft)
17.01.2014 04:48 7,3 C 5,6 C 87 % 998,7 hPa 0,0 l/m 0 min 0 min 0,0 UV-I 0 W/m 20,6 km/h (4 Bft)
17.01.2014 04:50 7,3 C 5,6 C 87 % 998,7 hPa 0,0 l/m 0 min 0 min 0,0 UV-I 0 W/m 20,6 km/h (4 Bft)
17.01.2014 04:52 7,3 C 5,6 C 87 % 998,7 hPa 0,0 l/m 0 min 0 min 0,0 UV-I 0 W/m 7,7 km/h (2 Bft)
17.01.2014 04:54 7,3 C 5,6 C 87 % 998,7 hPa 0,0 l/m 0 min 0 min 0,0 UV-I 0 W/m 18,0 km/h (3 Bft)
17.01.2014 04:56 7,3 C 5,6 C 87 % 998,6 hPa 0,0 l/m 0 min 0 min 0,0 UV-I 0 W/m 12,9 km/h (3 Bft)
17.01.2014 04:58 7,3 C 5,6 C 87 % 998,7 hPa 0,0 l/m 0 min 0 min 0,0 UV-I 0 W/m 20,6 km/h (4 Bft)
17.01.2014 05:00 7,3 C 5,6 C 87 % 998,6 hPa 0,0 l/m 0 min 0 min 0,0 UV-I 0 W/m 20,6 km/h (4 Bft)
17.01.2014 05:02 7,3 C 5,6 C 86 % 998,7 hPa 0,0 l/m 0 min 0 min 0,0 UV-I 0 W/m 15,4 km/h (3 Bft)
17.01.2014 05:04 7,4 C 5,6 C 86 % 998,7 hPa 0,0 l/m 0 min 0 min 0,0 UV-I 0 W/m 20,6 km/h (4 Bft)
17.01.2014 05:06 7,4 C 5,6 C 86 % 998,7 hPa 0,0 l/m 0 min 0 min 0,0 UV-I 0 W/m 28,3 km/h (4 Bft)
17.01.2014 05:08 7,4 C 5,6 C 86 % 998,7 hPa 0,0 l/m 0 min 0 min 0,0 UV-I 0 W/m 20,6 km/h (4 Bft)
17.01.2014 05:10 7,4 C 5,6 C 86 % 998,6 hPa 0,0 l/m 0 min 0 min 0,0 UV-I 0 W/m 12,9 km/h (3 Bft)
17.01.2014 05:12 7,4 C 5,6 C 86 % 998,6 hPa 0,0 l/m 0 min 0 min 0,0 UV-I 0 W/m 20,6 km/h (4 Bft)
17.01.2014 05:14 7,4 C 5,6 C 86 % 998,6 hPa 0,0 l/m 0 min 0 min 0,0 UV-I 0 W/m 18,0 km/h (3 Bft)
17.01.2014 05:16 7,4 C 5,6 C 86 % 998,6 hPa 0,0 l/m 0 min 0 min 0,0 UV-I 0 W/m 12,9 km/h (3 Bft)
17.01.2014 05:18 7,4 C 5,6 C 86 % 998,6 hPa 0,0 l/m 0 min 0 min 0,0 UV-I 0 W/m 10,3 km/h (2 Bft)
17.01.2014 05:20 7,4 C 5,6 C 86 % 998,7 hPa 0,0 l/m 0 min 0 min 0,0 UV-I 0 W/m 18,0 km/h (3 Bft)
17.01.2014 05:22 7,4 C 5,6 C 86 % 998,6 hPa 0,0 l/m 0 min 0 min 0,0 UV-I 0 W/m 15,4 km/h (3 Bft)
17.01.2014 05:24 7,4 C 5,6 C 86 % 998,6 hPa 0,0 l/m 0 min 0 min 0,0 UV-I 0 W/m 10,3 km/h (2 Bft)
17.01.2014 05:26 7,4 C 5,6 C 86 % 998,6 hPa 0,0 l/m 0 min 0 min 0,0 UV-I 0 W/m 15,4 km/h (3 Bft)
17.01.2014 05:28 7,4 C 5,6 C 86 % 998,6 hPa 0,0 l/m 0 min 0 min 0,0 UV-I 0 W/m 7,7 km/h (2 Bft)
17.01.2014 05:30 7,5 C 5,6 C 86 % 998,6 hPa 0,0 l/m 0 min 0 min 0,0 UV-I 0 W/m 12,9 km/h (3 Bft)
17.01.2014 05:32 7,4 C 5,6 C 86 % 998,5 hPa 0,0 l/m 0 min 0 min 0,0 UV-I 0 W/m 0,0 km/h (0 Bft)
17.01.2014 05:34 7,4 C 5,6 C 86 % 998,5 hPa 0,0 l/m 0 min 0 min 0,0 UV-I 0 W/m 12,9 km/h (3 Bft)
17.01.2014 05:36 7,5 C 5,6 C 85 % 998,5 hPa 0,0 l/m 0 min 0 min 0,0 UV-I 0 W/m 15,4 km/h (3 Bft)
17.01.2014 05:38 7,4 C 5,6 C 85 % 998,5 hPa 0,0 l/m 0 min 0 min 0,0 UV-I 0 W/m 20,6 km/h (4 Bft)
17.01.2014 05:40 7,4 C 5,6 C 85 % 998,5 hPa 0,0 l/m 0 min 0 min 0,0 UV-I 0 W/m 15,4 km/h (3 Bft)
17.01.2014 05:42 7,4 C 5,6 C 85 % 998,4 hPa 0,0 l/m 0 min 0 min 0,0 UV-I 0 W/m 20,6 km/h (4 Bft)
17.01.2014 05:44 7,4 C 5,6 C 85 % 998,5 hPa 0,0 l/m 0 min 0 min 0,0 UV-I 0 W/m 18,0 km/h (3 Bft)
17.01.2014 05:46 7,4 C 5,6 C 85 % 998,4 hPa 0,0 l/m 0 min 0 min 0,0 UV-I 0 W/m 23,2 km/h (4 Bft)
17.01.2014 05:48 7,4 C 5,6 C 85 % 998,4 hPa 0,0 l/m 0 min 0 min 0,0 UV-I 0 W/m 20,6 km/h (4 Bft)
17.01.2014 05:50 7,4 C 5,6 C 85 % 998,4 hPa 0,0 l/m 0 min 0 min 0,0 UV-I 0 W/m 23,2 km/h (4 Bft)
17.01.2014 05:52 7,4 C 5,6 C 85 % 998,4 hPa 0,0 l/m 0 min 0 min 0,0 UV-I 0 W/m 23,2 km/h (4 Bft)
17.01.2014 05:54 7,4 C 5,6 C 85 % 998,4 hPa 0,0 l/m 0 min 0 min 0,0 UV-I 0 W/m 20,6 km/h (4 Bft)
17.01.2014 05:56 7,4 C 5,6 C 85 % 998,5 hPa 0,0 l/m 0 min 0 min 0,0 UV-I 0 W/m 23,2 km/h (4 Bft)
17.01.2014 05:58 7,4 C 5,6 C 85 % 998,6 hPa 0,0 l/m 0 min 0 min 0,0 UV-I 0 W/m 18,0 km/h (3 Bft)
17.01.2014 06:00 7,4 C 5,6 C 85 % 998,6 hPa 0,0 l/m 0 min 0 min 0,0 UV-I 0 W/m 12,9 km/h (3 Bft)
17.01.2014 06:02 7,4 C 5,6 C 85 % 998,5 hPa 0,0 l/m 0 min 0 min 0,0 UV-I 0 W/m 15,4 km/h (3 Bft)
17.01.2014 06:04 7,4 C 5,6 C 86 % 998,5 hPa 0,0 l/m 0 min 0 min 0,0 UV-I 0 W/m 12,9 km/h (3 Bft)
17.01.2014 06:06 7,4 C 5,6 C 86 % 998,5 hPa 0,0 l/m 0 min 0 min 0,0 UV-I 0 W/m 15,4 km/h (3 Bft)
17.01.2014 06:08 7,4 C 5,6 C 86 % 998,5 hPa 0,0 l/m 0 min 0 min 0,0 UV-I 0 W/m 20,6 km/h (4 Bft)
17.01.2014 06:10 7,4 C 5,6 C 86 % 998,5 hPa 0,0 l/m 0 min 0 min 0,0 UV-I 0 W/m 12,9 km/h (3 Bft)
17.01.2014 06:12 7,4 C 5,6 C 86 % 998,5 hPa 0,0 l/m 0 min 0 min 0,0 UV-I 0 W/m 12,9 km/h (3 Bft)
17.01.2014 06:14 7,4 C 5,6 C 86 % 998,6 hPa 0,0 l/m 0 min 0 min 0,0 UV-I 0 W/m 10,3 km/h (2 Bft)
17.01.2014 06:16 7,4 C 5,6 C 86 % 998,6 hPa 0,0 l/m 0 min 0 min 0,0 UV-I 0 W/m 10,3 km/h (2 Bft)
17.01.2014 06:18 7,4 C 5,6 C 86 % 998,6 hPa 0,0 l/m 0 min 0 min 0,0 UV-I 0 W/m 10,3 km/h (2 Bft)
17.01.2014 06:20 7,4 C 5,6 C 86 % 998,6 hPa 0,0 l/m 0 min 0 min 0,0 UV-I 0 W/m 12,9 km/h (3 Bft)
17.01.2014 06:22 7,4 C 5,6 C 86 % 998,6 hPa 0,0 l/m 0 min 0 min 0,0 UV-I 0 W/m 15,4 km/h (3 Bft)
17.01.2014 06:24 7,4 C 5,6 C 86 % 998,6 hPa 0,0 l/m 0 min 0 min 0,0 UV-I 0 W/m 15,4 km/h (3 Bft)
17.01.2014 06:26 7,4 C 5,6 C 86 % 998,7 hPa 0,0 l/m 0 min 0 min 0,0 UV-I 0 W/m 10,3 km/h (2 Bft)
17.01.2014 06:28 7,4 C 5,6 C 86 % 998,6 hPa 0,0 l/m 0 min 0 min 0,0 UV-I 0 W/m 12,9 km/h (3 Bft)
17.01.2014 06:30 7,4 C 5,6 C 86 % 998,7 hPa 0,0 l/m 0 min 0 min 0,0 UV-I 0 W/m 15,4 km/h (3 Bft)
17.01.2014 06:32 7,4 C 5,6 C 86 % 998,6 hPa 0,0 l/m 0 min 0 min 0,0 UV-I 0 W/m 10,3 km/h (2 Bft)
17.01.2014 06:34 7,4 C 5,6 C 86 % 998,6 hPa 0,0 l/m 0 min 0 min 0,0 UV-I 0 W/m 0,0 km/h (0 Bft)
17.01.2014 06:36 7,4 C 5,6 C 86 % 998,6 hPa 0,0 l/m 0 min 0 min 0,0 UV-I 0 W/m 15,4 km/h (3 Bft)
17.01.2014 06:38 7,4 C 5,6 C 86 % 998,6 hPa 0,0 l/m 0 min 0 min 0,0 UV-I 0 W/m 10,3 km/h (2 Bft)
17.01.2014 06:40 7,4 C 5,6 C 86 % 998,6 hPa 0,0 l/m 0 min 0 min 0,0 UV-I 0 W/m 12,9 km/h (3 Bft)
17.01.2014 06:42 7,4 C 5,6 C 86 % 998,6 hPa 0,0 l/m 0 min 0 min 0,0 UV-I 0 W/m 18,0 km/h (3 Bft)
17.01.2014 06:44 7,4 C 5,6 C 86 % 998,5 hPa 0,0 l/m 0 min 0 min 0,0 UV-I 0 W/m 10,3 km/h (2 Bft)
17.01.2014 06:46 7,4 C 5,6 C 86 % 998,4 hPa 0,0 l/m 0 min 0 min 0,0 UV-I 0 W/m 10,3 km/h (2 Bft)
17.01.2014 06:48 7,4 C 5,6 C 86 % 998,5 hPa 0,0 l/m 0 min 0 min 0,0 UV-I 0 W/m 10,3 km/h (2 Bft)
17.01.2014 06:50 7,4 C 5,6 C 86 % 998,5 hPa 0,0 l/m 0 min 0 min 0,0 UV-I 0 W/m 7,7 km/h (2 Bft)
17.01.2014 06:52 7,4 C 5,6 C 86 % 998,6 hPa 0,0 l/m 0 min 0 min 0,0 UV-I 0 W/m 12,9 km/h (3 Bft)
17.01.2014 06:54 7,4 C 5,6 C 86 % 998,5 hPa 0,0 l/m 0 min 0 min 0,0 UV-I 0 W/m 10,3 km/h (2 Bft)
17.01.2014 06:56 7,4 C 5,6 C 86 % 998,6 hPa 0,0 l/m 0 min 0 min 0,0 UV-I 0 W/m 7,7 km/h (2 Bft)
17.01.2014 06:58 7,4 C 5,6 C 86 % 998,6 hPa 0,0 l/m 0 min 0 min 0,0 UV-I 0 W/m 0,0 km/h (0 Bft)
17.01.2014 07:00 7,4 C 5,6 C 86 % 998,6 hPa 0,0 l/m 0 min 0 min 0,0 UV-I 0 W/m 12,9 km/h (3 Bft)
17.01.2014 07:02 7,4 C 5,6 C 87 % 998,5 hPa 0,0 l/m 0 min 0 min 0,0 UV-I 0 W/m 12,9 km/h (3 Bft)
17.01.2014 07:04 7,4 C 5,6 C 87 % 998,6 hPa 0,0 l/m 0 min 0 min 0,0 UV-I 0 W/m 7,7 km/h (2 Bft)
17.01.2014 07:06 7,4 C 5,6 C 87 % 998,6 hPa 0,0 l/m 0 min 0 min 0,0 UV-I 0 W/m 7,7 km/h (2 Bft)
17.01.2014 07:08 7,4 C 5,6 C 87 % 998,6 hPa 0,0 l/m 0 min 0 min 0,0 UV-I 0 W/m 10,3 km/h (2 Bft)
17.01.2014 07:10 7,4 C 5,6 C 87 % 998,6 hPa 0,0 l/m 0 min 0 min 0,0 UV-I 0 W/m 7,7 km/h (2 Bft)
17.01.2014 07:12 7,3 C 5,6 C 87 % 998,7 hPa 0,0 l/m 0 min 0 min 0,0 UV-I 0 W/m 10,3 km/h (2 Bft)
17.01.2014 07:14 7,4 C 5,6 C 87 % 998,6 hPa 0,0 l/m 0 min 0 min 0,0 UV-I 0 W/m 10,3 km/h (2 Bft)
17.01.2014 07:16 7,3 C 5,6 C 87 % 998,7 hPa 0,0 l/m 0 min 0 min 0,0 UV-I 0 W/m 2,6 km/h (1 Bft)
17.01.2014 07:18 7,3 C 5,6 C 87 % 998,7 hPa 0,0 l/m 0 min 0 min 0,0 UV-I 0 W/m 7,7 km/h (2 Bft)
17.01.2014 07:20 7,3 C 5,6 C 87 % 998,7 hPa 0,0 l/m 0 min 0 min 0,0 UV-I 0 W/m 10,3 km/h (2 Bft)
17.01.2014 07:22 7,3 C 5,6 C 87 % 998,7 hPa 0,0 l/m 0 min 0 min 0,0 UV-I 0 W/m 0,0 km/h (0 Bft)
17.01.2014 07:24 7,3 C 5,6 C 87 % 998,7 hPa 0,0 l/m 0 min 0 min 0,0 UV-I 0 W/m 0,0 km/h (0 Bft)
17.01.2014 07:26 7,3 C 5,6 C 87 % 998,7 hPa 0,0 l/m 0 min 0 min 0,0 UV-I 0 W/m 0,0 km/h (0 Bft)
17.01.2014 07:28 7,3 C 5,6 C 87 % 998,6 hPa 0,0 l/m 0 min 0 min 0,0 UV-I 0 W/m 0,0 km/h (0 Bft)
17.01.2014 07:30 7,3 C 5,6 C 87 % 998,7 hPa 0,0 l/m 0 min 0 min 0,0 UV-I 0 W/m 5,1 km/h (1 Bft)
17.01.2014 07:32 7,3 C 5,6 C 87 % 998,6 hPa 0,0 l/m 0 min 0 min 0,0 UV-I 0 W/m 7,7 km/h (2 Bft)
17.01.2014 07:34 7,3 C 5,6 C 87 % 998,7 hPa 0,0 l/m 0 min 0 min 0,0 UV-I 0 W/m 7,7 km/h (2 Bft)
17.01.2014 07:36 7,3 C 5,6 C 87 % 998,7 hPa 0,0 l/m 0 min 0 min 0,0 UV-I 0 W/m 0,0 km/h (0 Bft)
17.01.2014 07:38 7,3 C 5,6 C 88 % 998,7 hPa 0,0 l/m 0 min 0 min 0,0 UV-I 0 W/m 2,6 km/h (1 Bft)
17.01.2014 07:40 7,3 C 5,6 C 88 % 998,7 hPa 0,0 l/m 0 min 0 min 0,0 UV-I 0 W/m 15,4 km/h (3 Bft)
17.01.2014 07:42 7,3 C 5,6 C 88 % 998,7 hPa 0,0 l/m 0 min 0 min 0,0 UV-I 0 W/m 5,1 km/h (1 Bft)
17.01.2014 07:44 7,3 C 5,6 C 88 % 998,7 hPa 0,0 l/m 0 min 0 min 0,0 UV-I 0 W/m 5,1 km/h (1 Bft)
17.01.2014 07:46 7,3 C 5,6 C 88 % 998,8 hPa 0,0 l/m 0 min 0 min 0,0 UV-I 0 W/m 10,3 km/h (2 Bft)
17.01.2014 07:48 7,3 C 5,6 C 88 % 998,8 hPa 0,0 l/m 0 min 0 min 0,0 UV-I 0 W/m 5,1 km/h (1 Bft)
17.01.2014 07:50 7,3 C 5,6 C 88 % 998,8 hPa 0,0 l/m 0 min 0 min 0,0 UV-I 0 W/m 7,7 km/h (2 Bft)
17.01.2014 07:52 7,3 C 5,6 C 88 % 998,8 hPa 0,0 l/m 0 min 0 min 0,0 UV-I 0 W/m 15,4 km/h (3 Bft)
17.01.2014 07:54 7,3 C 5,6 C 88 % 998,8 hPa 0,0 l/m 0 min 0 min 0,0 UV-I 0 W/m 7,7 km/h (2 Bft)
17.01.2014 07:56 7,3 C 5,6 C 88 % 998,9 hPa 0,0 l/m 0 min 0 min 0,0 UV-I 0 W/m 5,1 km/h (1 Bft)
17.01.2014 07:58 7,3 C 5,6 C 88 % 999,0 hPa 0,0 l/m 0 min 0 min 0,0 UV-I 0 W/m 12,9 km/h (3 Bft)
17.01.2014 08:00 7,3 C 5,6 C 88 % 999,0 hPa 0,0 l/m 0 min 0 min 0,0 UV-I 0 W/m 0,0 km/h (0 Bft)
17.01.2014 08:02 7,3 C 5,6 C 88 % 999,0 hPa 0,0 l/m 0 min 0 min 0,0 UV-I 0 W/m 5,1 km/h (1 Bft)
17.01.2014 08:04 7,3 C 5,6 C 88 % 999,0 hPa 0,0 l/m 0 min 0 min 0,0 UV-I 0 W/m 10,3 km/h (2 Bft)
17.01.2014 08:06 7,3 C 5,6 C 88 % 999,0 hPa 0,0 l/m 0 min 0 min 0,0 UV-I 0 W/m 5,1 km/h (1 Bft)
17.01.2014 08:08 7,3 C 5,6 C 88 % 999,0 hPa 0,0 l/m 0 min 0 min 0,0 UV-I 0 W/m 10,3 km/h (2 Bft)
17.01.2014 08:10 7,3 C 5,6 C 88 % 999,0 hPa 0,0 l/m 0 min 0 min 0,0 UV-I 0 W/m 5,1 km/h (1 Bft)
17.01.2014 08:12 7,3 C 5,6 C 88 % 999,0 hPa 0,0 l/m 0 min 0 min 0,0 UV-I 0 W/m 12,9 km/h (3 Bft)
17.01.2014 08:14 7,3 C 5,6 C 88 % 999,1 hPa 0,0 l/m 0 min 0 min 0,0 UV-I 0 W/m 0,0 km/h (0 Bft)
17.01.2014 08:16 7,3 C 5,6 C 88 % 999,0 hPa 0,0 l/m 0 min 0 min 0,0 UV-I 0 W/m 12,9 km/h (3 Bft)
17.01.2014 08:18 7,3 C 5,6 C 88 % 999,0 hPa 0,0 l/m 0 min 0 min 0,0 UV-I 0 W/m 10,3 km/h (2 Bft)
17.01.2014 08:20 7,3 C 5,6 C 88 % 999,0 hPa 0,0 l/m 0 min 0 min 0,0 UV-I 0 W/m 10,3 km/h (2 Bft)
17.01.2014 08:22 7,3 C 5,6 C 88 % 999,0 hPa 0,0 l/m 0 min 0 min 0,0 UV-I 0 W/m 12,9 km/h (3 Bft)
17.01.2014 08:24 7,3 C 5,6 C 88 % 999,1 hPa 0,0 l/m 0 min 0 min 0,0 UV-I 0 W/m 10,3 km/h (2 Bft)
17.01.2014 08:26 7,3 C 5,6 C 88 % 999,1 hPa 0,0 l/m 0 min 0 min 0,0 UV-I 0 W/m 5,1 km/h (1 Bft)
17.01.2014 08:28 7,3 C 5,6 C 87 % 999,1 hPa 0,0 l/m 0 min 0 min 0,0 UV-I 0 W/m 7,7 km/h (2 Bft)
17.01.2014 08:30 7,3 C 5,6 C 87 % 999,1 hPa 0,0 l/m 0 min 0 min 0,0 UV-I 0 W/m 10,3 km/h (2 Bft)
17.01.2014 08:32 7,4 C 5,6 C 87 % 999,1 hPa 0,0 l/m 0 min 0 min 0,0 UV-I 0 W/m 2,6 km/h (1 Bft)
17.01.2014 08:34 7,3 C 5,6 C 87 % 999,1 hPa 0,0 l/m 0 min 0 min 0,0 UV-I 0 W/m 7,7 km/h (2 Bft)
17.01.2014 08:36 7,3 C 5,6 C 87 % 999,1 hPa 0,0 l/m 0 min 0 min 0,0 UV-I 0 W/m 18,0 km/h (3 Bft)
17.01.2014 08:38 7,3 C 5,6 C 87 % 999,0 hPa 0,0 l/m 0 min 0 min 0,0 UV-I 0 W/m 10,3 km/h (2 Bft)
17.01.2014 08:40 7,3 C 5,6 C 87 % 999,0 hPa 0,0 l/m 0 min 0 min 0,0 UV-I 0 W/m 12,9 km/h (3 Bft)
17.01.2014 08:42 7,3 C 5,6 C 87 % 999,1 hPa 0,0 l/m 0 min 0 min 0,0 UV-I 0 W/m 5,1 km/h (1 Bft)
17.01.2014 08:44 7,3 C 5,6 C 87 % 999,1 hPa 0,0 l/m 0 min 0 min 0,0 UV-I 0 W/m 10,3 km/h (2 Bft)
17.01.2014 08:46 7,3 C 5,6 C 87 % 999,2 hPa 0,0 l/m 0 min 0 min 0,0 UV-I 5 W/m 15,4 km/h (3 Bft)
17.01.2014 08:48 7,3 C 5,6 C 87 % 999,1 hPa 0,0 l/m 0 min 0 min 0,0 UV-I 5 W/m 2,6 km/h (1 Bft)
17.01.2014 08:50 7,3 C 5,6 C 87 % 999,2 hPa 0,0 l/m 0 min 0 min 0,0 UV-I 5 W/m 7,7 km/h (2 Bft)
17.01.2014 08:52 7,3 C 5,6 C 87 % 999,1 hPa 0,0 l/m 0 min 0 min 0,0 UV-I 5 W/m 10,3 km/h (2 Bft)
17.01.2014 08:54 7,3 C 5,6 C 87 % 999,1 hPa 0,0 l/m 0 min 0 min 0,0 UV-I 5 W/m 10,3 km/h (2 Bft)
17.01.2014 08:56 7,3 C 5,6 C 87 % 999,2 hPa 0,0 l/m 0 min 0 min 0,0 UV-I 5 W/m 12,9 km/h (3 Bft)
17.01.2014 08:58 7,3 C 5,6 C 87 % 999,2 hPa 0,0 l/m 0 min 0 min 0,0 UV-I 7 W/m 10,3 km/h (2 Bft)
17.01.2014 09:00 7,3 C 5,6 C 87 % 999,2 hPa 0,0 l/m 0 min 0 min 0,0 UV-I 7 W/m 18,0 km/h (3 Bft)
17.01.2014 09:02 7,3 C 5,6 C 87 % 999,3 hPa 0,0 l/m 0 min 0 min 0,0 UV-I 9 W/m 7,7 km/h (2 Bft)
17.01.2014 09:04 7,3 C 5,6 C 87 % 999,3 hPa 0,0 l/m 0 min 0 min 0,0 UV-I 7 W/m 10,3 km/h (2 Bft)
17.01.2014 09:06 7,3 C 5,6 C 87 % 999,2 hPa 0,0 l/m 0 min 0 min 0,0 UV-I 7 W/m 12,9 km/h (3 Bft)
17.01.2014 09:08 7,3 C 5,6 C 87 % 999,3 hPa 0,0 l/m 0 min 0 min 0,0 UV-I 9 W/m 18,0 km/h (3 Bft)
17.01.2014 09:10 7,3 C 5,6 C 87 % 999,3 hPa 0,0 l/m 0 min 0 min 0,0 UV-I 12 W/m 10,3 km/h (2 Bft)
17.01.2014 09:12 7,3 C 5,6 C 87 % 999,3 hPa 0,0 l/m 0 min 0 min 0,0 UV-I 16 W/m 5,1 km/h (1 Bft)
17.01.2014 09:14 7,3 C 5,6 C 87 % 999,3 hPa 0,0 l/m 0 min 0 min 0,0 UV-I 16 W/m 15,4 km/h (3 Bft)
17.01.2014 09:16 7,3 C 6,1 C 87 % 999,3 hPa 0,0 l/m 0 min 0 min 0,0 UV-I 19 W/m 10,3 km/h (2 Bft)
17.01.2014 09:18 7,3 C 6,1 C 87 % 999,3 hPa 0,0 l/m 0 min 0 min 0,0 UV-I 25 W/m 10,3 km/h (2 Bft)
17.01.2014 09:20 7,3 C 6,1 C 87 % 999,2 hPa 0,0 l/m 0 min 0 min 0,0 UV-I 28 W/m 10,3 km/h (2 Bft)
17.01.2014 09:22 7,3 C 6,1 C 87 % 999,1 hPa 0,0 l/m 0 min 0 min 0,0 UV-I 32 W/m 18,0 km/h (3 Bft)
17.01.2014 09:24 7,3 C 6,1 C 87 % 999,1 hPa 0,0 l/m 0 min 0 min 0,0 UV-I 32 W/m 10,3 km/h (2 Bft)
17.01.2014 09:26 7,3 C 6,1 C 87 % 999,1 hPa 0,0 l/m 0 min 0 min 0,0 UV-I 30 W/m 12,9 km/h (3 Bft)
17.01.2014 09:28 7,3 C 6,1 C 87 % 999,2 hPa 0,0 l/m 0 min 0 min 0,0 UV-I 33 W/m 15,4 km/h (3 Bft)
17.01.2014 09:30 7,4 C 6,1 C 87 % 999,2 hPa 0,0 l/m 0 min 0 min 0,0 UV-I 33 W/m 10,3 km/h (2 Bft)
17.01.2014 09:32 7,4 C 6,1 C 87 % 999,2 hPa 0,0 l/m 0 min 0 min 0,0 UV-I 35 W/m 23,2 km/h (4 Bft)
17.01.2014 09:34 7,4 C 6,1 C 87 % 999,2 hPa 0,0 l/m 0 min 0 min 0,0 UV-I 37 W/m 18,0 km/h (3 Bft)
17.01.2014 09:36 7,4 C 6,1 C 87 % 999,2 hPa 0,0 l/m 0 min 0 min 0,0 UV-I 37 W/m 12,9 km/h (3 Bft)
17.01.2014 09:38 7,4 C 6,1 C 87 % 999,2 hPa 0,0 l/m 0 min 0 min 0,0 UV-I 37 W/m 12,9 km/h (3 Bft)
17.01.2014 09:40 7,4 C 6,1 C 87 % 999,2 hPa 0,0 l/m 0 min 0 min 0,0 UV-I 37 W/m 15,4 km/h (3 Bft)
17.01.2014 09:42 7,4 C 6,1 C 87 % 999,3 hPa 0,0 l/m 0 min 0 min 0,0 UV-I 37 W/m 10,3 km/h (2 Bft)
17.01.2014 09:44 7,4 C 6,1 C 86 % 999,3 hPa 0,0 l/m 0 min 0 min 0,0 UV-I 40 W/m 12,9 km/h (3 Bft)
17.01.2014 09:46 7,5 C 6,7 C 87 % 999,3 hPa 0,0 l/m 0 min 0 min 0,0 UV-I 54 W/m 15,4 km/h (3 Bft)
17.01.2014 09:48 7,5 C 6,7 C 87 % 999,3 hPa 0,0 l/m 0 min 0 min 0,0 UV-I 65 W/m 15,4 km/h (3 Bft)
17.01.2014 09:50 7,6 C 6,7 C 87 % 999,2 hPa 0,0 l/m 2 min 0 min 0,0 UV-I 102 W/m 18,0 km/h (3 Bft)
17.01.2014 09:52 7,6 C 6,7 C 86 % 999,3 hPa 0,0 l/m 0 min 0 min 0,0 UV-I 84 W/m 20,6 km/h (4 Bft)
17.01.2014 09:54 7,7 C 6,7 C 86 % 999,3 hPa 0,0 l/m 0 min 0 min 0,0 UV-I 84 W/m 10,3 km/h (2 Bft)
17.01.2014 09:56 7,8 C 6,7 C 86 % 999,3 hPa 0,0 l/m 0 min 0 min 0,0 UV-I 83 W/m 15,4 km/h (3 Bft)
17.01.2014 09:58 7,9 C 6,7 C 86 % 999,3 hPa 0,0 l/m 0 min 0 min 0,0 UV-I 77 W/m 18,0 km/h (3 Bft)
17.01.2014 10:00 7,9 C 6,7 C 86 % 999,3 hPa 0,0 l/m 0 min 0 min 0,0 UV-I 76 W/m 18,0 km/h (3 Bft)
17.01.2014 10:02 8,0 C 7,2 C 85 % 999,3 hPa 0,0 l/m 0 min 0 min 0,0 UV-I 76 W/m 15,4 km/h (3 Bft)
17.01.2014 10:04 8,0 C 7,2 C 85 % 999,4 hPa 0,0 l/m 0 min 0 min 0,0 UV-I 83 W/m 10,3 km/h (2 Bft)
17.01.2014 10:06 8,1 C 7,2 C 85 % 999,3 hPa 0,0 l/m 0 min 0 min 0,0 UV-I 83 W/m 12,9 km/h (3 Bft)
17.01.2014 10:08 8,1 C 7,2 C 85 % 999,3 hPa 0,0 l/m 0 min 0 min 0,0 UV-I 76 W/m 18,0 km/h (3 Bft)
17.01.2014 10:10 8,2 C 7,2 C 84 % 999,3 hPa 0,0 l/m 0 min 0 min 0,0 UV-I 86 W/m 12,9 km/h (3 Bft)
17.01.2014 10:12 8,2 C 7,2 C 84 % 999,3 hPa 0,0 l/m 0 min 0 min 0,0 UV-I 63 W/m 18,0 km/h (3 Bft)
17.01.2014 10:14 8,2 C 7,2 C 84 % 999,3 hPa 0,0 l/m 0 min 0 min 0,0 UV-I 54 W/m 20,6 km/h (4 Bft)
17.01.2014 10:16 8,2 C 7,2 C 84 % 999,4 hPa 0,0 l/m 0 min 0 min 0,0 UV-I 60 W/m 23,2 km/h (4 Bft)
17.01.2014 10:18 8,2 C 7,2 C 84 % 999,4 hPa 0,0 l/m 0 min 0 min 0,0 UV-I 56 W/m 10,3 km/h (2 Bft)
17.01.2014 10:20 8,2 C 7,2 C 84 % 999,4 hPa 0,0 l/m 0 min 0 min 0,0 UV-I 54 W/m 10,3 km/h (2 Bft)
17.01.2014 10:22 8,2 C 7,2 C 84 % 999,4 hPa 0,0 l/m 2 min 0 min 0,0 UV-I 146 W/m 18,0 km/h (3 Bft)
17.01.2014 10:24 8,2 C 7,2 C 84 % 999,4 hPa 0,0 l/m 0 min 0 min 0,0 UV-I 74 W/m 12,9 km/h (3 Bft)
17.01.2014 10:26 8,3 C 7,2 C 83 % 999,4 hPa 0,0 l/m 0 min 0 min 0,0 UV-I 58 W/m 10,3 km/h (2 Bft)
17.01.2014 10:28 8,3 C 7,2 C 84 % 999,4 hPa 0,0 l/m 0 min 0 min 0,0 UV-I 47 W/m 12,9 km/h (3 Bft)
17.01.2014 10:30 8,3 C 7,2 C 84 % 999,5 hPa 0,0 l/m 0 min 0 min 0,0 UV-I 42 W/m 2,6 km/h (1 Bft)
17.01.2014 10:32 8,3 C 7,2 C 84 % 999,4 hPa 0,0 l/m 0 min 0 min 0,0 UV-I 37 W/m 7,7 km/h (2 Bft)
17.01.2014 10:34 8,3 C 7,2 C 84 % 999,4 hPa 0,0 l/m 0 min 0 min 0,0 UV-I 35 W/m 0,0 km/h (0 Bft)
17.01.2014 10:36 8,3 C 6,7 C 84 % 999,5 hPa 0,0 l/m 0 min 0 min 0,0 UV-I 40 W/m 12,9 km/h (3 Bft)
17.01.2014 10:38 8,3 C 6,7 C 84 % 999,5 hPa 0,0 l/m 0 min 0 min 0,0 UV-I 33 W/m 12,9 km/h (3 Bft)
17.01.2014 10:40 8,2 C 6,7 C 84 % 999,5 hPa 0,0 l/m 0 min 0 min 0,0 UV-I 28 W/m 10,3 km/h (2 Bft)
17.01.2014 10:42 8,2 C 6,7 C 83 % 999,5 hPa 0,0 l/m 0 min 0 min 0,0 UV-I 26 W/m 7,7 km/h (2 Bft)
17.01.2014 10:44 8,2 C 6,7 C 83 % 999,5 hPa 0,0 l/m 0 min 0 min 0,0 UV-I 37 W/m 10,3 km/h (2 Bft)
17.01.2014 10:46 8,2 C 6,7 C 83 % 999,5 hPa 0,0 l/m 0 min 0 min 0,0 UV-I 39 W/m 7,7 km/h (2 Bft)
17.01.2014 10:48 8,2 C 7,2 C 83 % 999,5 hPa 0,0 l/m 0 min 0 min 0,0 UV-I 54 W/m 15,4 km/h (3 Bft)
17.01.2014 10:50 8,2 C 7,2 C 83 % 999,6 hPa 0,0 l/m 0 min 0 min 0,0 UV-I 62 W/m 18,0 km/h (3 Bft)
17.01.2014 10:52 8,3 C 7,2 C 83 % 999,5 hPa 0,0 l/m 0 min 0 min 0,0 UV-I 56 W/m 15,4 km/h (3 Bft)
17.01.2014 10:54 8,2 C 7,2 C 83 % 999,6 hPa 0,0 l/m 0 min 0 min 0,0 UV-I 51 W/m 12,9 km/h (3 Bft)
17.01.2014 10:56 8,3 C 7,2 C 83 % 999,6 hPa 0,0 l/m 0 min 0 min 0,0 UV-I 46 W/m 12,9 km/h (3 Bft)
17.01.2014 10:58 8,3 C 7,2 C 83 % 999,6 hPa 0,0 l/m 0 min 0 min 0,0 UV-I 42 W/m 15,4 km/h (3 Bft)
17.01.2014 11:00 8,3 C 7,2 C 83 % 999,6 hPa 0,0 l/m 0 min 0 min 0,0 UV-I 56 W/m 18,0 km/h (3 Bft)
17.01.2014 11:02 8,3 C 7,2 C 83 % 999,6 hPa 0,0 l/m 0 min 0 min 0,0 UV-I 67 W/m 15,4 km/h (3 Bft)
17.01.2014 11:04 8,3 C 7,2 C 83 % 999,6 hPa 0,0 l/m 0 min 0 min 0,0 UV-I 77 W/m 15,4 km/h (3 Bft)
17.01.2014 11:06 8,4 C 7,2 C 83 % 999,7 hPa 0,0 l/m 0 min 0 min 0,0 UV-I 69 W/m 15,4 km/h (3 Bft)
17.01.2014 11:08 8,4 C 7,2 C 82 % 999,7 hPa 0,0 l/m 0 min 0 min 0,0 UV-I 58 W/m 15,4 km/h (3 Bft)
17.01.2014 11:10 8,4 C 7,2 C 82 % 999,8 hPa 0,0 l/m 0 min 0 min 0,0 UV-I 56 W/m 23,2 km/h (4 Bft)
17.01.2014 11:12 8,5 C 7,2 C 82 % 999,7 hPa 0,0 l/m 0 min 0 min 0,0 UV-I 54 W/m 15,4 km/h (3 Bft)
17.01.2014 11:14 8,6 C 7,2 C 82 % 999,7 hPa 0,0 l/m 0 min 0 min 0,0 UV-I 63 W/m 10,3 km/h (2 Bft)
17.01.2014 11:16 8,6 C 7,2 C 81 % 999,8 hPa 0,0 l/m 0 min 0 min 0,0 UV-I 74 W/m 10,3 km/h (2 Bft)
17.01.2014 11:18 8,6 C 7,2 C 81 % 999,6 hPa 0,0 l/m 0 min 0 min 0,0 UV-I 86 W/m 12,9 km/h (3 Bft)
17.01.2014 11:20 8,7 C 7,8 C 81 % 999,6 hPa 0,0 l/m 0 min 0 min 0,0 UV-I 134 W/m 12,9 km/h (3 Bft)
17.01.2014 11:22 8,7 C 7,8 C 81 % 999,7 hPa 0,0 l/m 0 min 0 min 0,0 UV-I 141 W/m 7,7 km/h (2 Bft)
17.01.2014 11:24 8,8 C 7,8 C 81 % 999,6 hPa 0,0 l/m 0 min 0 min 0,0 UV-I 125 W/m 7,7 km/h (2 Bft)
17.01.2014 11:26 8,9 C 7,8 C 81 % 999,6 hPa 0,0 l/m 0 min 0 min 0,0 UV-I 142 W/m 20,6 km/h (4 Bft)
17.01.2014 11:28 8,9 C 7,8 C 81 % 999,6 hPa 0,0 l/m 0 min 0 min 0,0 UV-I 130 W/m 5,1 km/h (1 Bft)
17.01.2014 11:30 8,9 C 7,8 C 80 % 999,5 hPa 0,0 l/m 0 min 0 min 0,0 UV-I 120 W/m 10,3 km/h (2 Bft)
17.01.2014 11:32 9,0 C 7,8 C 80 % 999,5 hPa 0,0 l/m 0 min 0 min 0,0 UV-I 102 W/m 7,7 km/h (2 Bft)
17.01.2014 11:34 8,9 C 7,8 C 80 % 999,5 hPa 0,0 l/m 0 min 0 min 0,0 UV-I 95 W/m 7,7 km/h (2 Bft)
17.01.2014 11:36 8,9 C 7,8 C 80 % 999,4 hPa 0,0 l/m 0 min 0 min 0,0 UV-I 83 W/m 0,0 km/h (0 Bft)
17.01.2014 11:38 8,9 C 7,8 C 80 % 999,5 hPa 0,0 l/m 0 min 0 min 0,0 UV-I 83 W/m 5,1 km/h (1 Bft)
17.01.2014 11:40 8,8 C 7,2 C 80 % 999,5 hPa 0,0 l/m 0 min 0 min 0,0 UV-I 90 W/m 0,0 km/h (0 Bft)
17.01.2014 11:42 8,8 C 7,2 C 81 % 999,5 hPa 0,0 l/m 0 min 0 min 0,0 UV-I 104 W/m 7,7 km/h (2 Bft)
17.01.2014 11:44 8,8 C 7,8 C 81 % 999,5 hPa 0,0 l/m 0 min 0 min 0,0 UV-I 146 W/m 12,9 km/h (3 Bft)
17.01.2014 11:46 8,9 C 7,8 C 80 % 999,6 hPa 0,0 l/m 2 min 0 min 0,0 UV-I 258 W/m 15,4 km/h (3 Bft)
17.01.2014 11:48 9,1 C 7,8 C 81 % 999,5 hPa 0,0 l/m 2 min 0 min 0,0 UV-I 179 W/m 5,1 km/h (1 Bft)
17.01.2014 11:50 9,2 C 8,3 C 80 % 999,5 hPa 0,0 l/m 2 min 0 min 0,0 UV-I 264 W/m 18,0 km/h (3 Bft)
17.01.2014 11:52 9,4 C 8,3 C 80 % 999,5 hPa 0,0 l/m 2 min 0 min 0,0 UV-I 260 W/m 18,0 km/h (3 Bft)
17.01.2014 11:54 9,4 C 8,3 C 80 % 999,5 hPa 0,0 l/m 0 min 0 min 0,0 UV-I 111 W/m 5,1 km/h (1 Bft)
17.01.2014 11:56 9,4 C 8,3 C 79 % 999,5 hPa 0,0 l/m 0 min 0 min 0,0 UV-I 125 W/m 20,6 km/h (4 Bft)
17.01.2014 11:58 9,4 C 8,3 C 79 % 999,4 hPa 0,0 l/m 0 min 0 min 0,0 UV-I 102 W/m 23,2 km/h (4 Bft)
17.01.2014 12:00 9,3 C 7,8 C 78 % 999,4 hPa 0,0 l/m 0 min 0 min 0,0 UV-I 102 W/m 20,6 km/h (4 Bft)
17.01.2014 12:02 9,3 C 7,8 C 79 % 999,4 hPa 0,0 l/m 0 min 0 min 0,0 UV-I 81 W/m 15,4 km/h (3 Bft)
17.01.2014 12:04 9,2 C 7,8 C 79 % 999,4 hPa 0,0 l/m 0 min 0 min 0,0 UV-I 91 W/m 12,9 km/h (3 Bft)
17.01.2014 12:06 9,3 C 7,8 C 79 % 999,4 hPa 0,0 l/m 2 min 0 min 0,0 UV-I 283 W/m 15,4 km/h (3 Bft)
17.01.2014 12:08 9,4 C 7,8 C 78 % 999,3 hPa 0,0 l/m 2 min 0 min 0,0 UV-I 218 W/m 23,2 km/h (4 Bft)
17.01.2014 12:10 9,6 C 7,8 C 78 % 999,3 hPa 0,0 l/m 2 min 0 min 0,0 UV-I 253 W/m 18,0 km/h (3 Bft)
17.01.2014 12:12 9,7 C 8,3 C 78 % 999,3 hPa 0,0 l/m 2 min 0 min 0,0 UV-I 267 W/m 25,7 km/h (4 Bft)
17.01.2014 12:14 9,7 C 8,3 C 78 % 999,4 hPa 0,0 l/m 0 min 0 min 0,0 UV-I 130 W/m 28,3 km/h (4 Bft)
17.01.2014 12:16 9,7 C 8,3 C 77 % 999,3 hPa 0,0 l/m 0 min 0 min 0,0 UV-I 144 W/m 20,6 km/h (4 Bft)
17.01.2014 12:18 9,7 C 8,3 C 77 % 999,3 hPa 0,0 l/m 0 min 0 min 0,0 UV-I 144 W/m 18,0 km/h (3 Bft)
17.01.2014 12:20 9,6 C 8,3 C 77 % 999,4 hPa 0,0 l/m 0 min 0 min 0,0 UV-I 135 W/m 12,9 km/h (3 Bft)
17.01.2014 12:22 9,6 C 8,3 C 77 % 999,3 hPa 0,0 l/m 2 min 0 min 0,0 UV-I 200 W/m 23,2 km/h (4 Bft)
17.01.2014 12:24 9,7 C 8,3 C 77 % 999,3 hPa 0,0 l/m 2 min 0 min 0,0 UV-I 197 W/m 12,9 km/h (3 Bft)
17.01.2014 12:26 9,8 C 8,3 C 77 % 999,3 hPa 0,0 l/m 2 min 0 min 0,0 UV-I 348 W/m 15,4 km/h (3 Bft)
17.01.2014 12:28 9,9 C 8,3 C 77 % 999,3 hPa 0,0 l/m 2 min 0 min 0,0 UV-I 313 W/m 18,0 km/h (3 Bft)
17.01.2014 12:30 10,0 C 8,3 C 77 % 999,3 hPa 0,0 l/m 0 min 0 min 0,0 UV-I 134 W/m 12,9 km/h (3 Bft)
17.01.2014 12:32 9,9 C 8,3 C 76 % 999,3 hPa 0,0 l/m 0 min 0 min 0,0 UV-I 107 W/m 18,0 km/h (3 Bft)
17.01.2014 12:34 9,9 C 8,3 C 76 % 999,4 hPa 0,0 l/m 0 min 0 min 0,0 UV-I 91 W/m 23,2 km/h (4 Bft)
17.01.2014 12:36 9,8 C 8,3 C 76 % 999,2 hPa 0,0 l/m 0 min 0 min 0,0 UV-I 83 W/m 18,0 km/h (3 Bft)
17.01.2014 12:38 9,7 C 7,8 C 77 % 999,3 hPa 0,0 l/m 0 min 0 min 0,0 UV-I 98 W/m 15,4 km/h (3 Bft)
17.01.2014 12:40 9,7 C 7,8 C 77 % 999,4 hPa 0,0 l/m 2 min 0 min 0,0 UV-I 272 W/m 23,2 km/h (4 Bft)
17.01.2014 12:42 9,7 C 8,3 C 76 % 999,3 hPa 0,0 l/m 0 min 0 min 0,0 UV-I 142 W/m 18,0 km/h (3 Bft)
17.01.2014 12:44 9,8 C 8,3 C 76 % 999,3 hPa 0,0 l/m 2 min 0 min 0,0 UV-I 185 W/m 15,4 km/h (3 Bft)
17.01.2014 12:46 9,8 C 8,3 C 77 % 999,2 hPa 0,0 l/m 0 min 0 min 0,0 UV-I 139 W/m 10,3 km/h (2 Bft)
17.01.2014 12:48 9,8 C 8,9 C 76 % 999,3 hPa 0,0 l/m 0 min 0 min 0,0 UV-I 155 W/m 20,6 km/h (4 Bft)
17.01.2014 12:50 9,9 C 8,9 C 76 % 999,2 hPa 0,0 l/m 0 min 0 min 0,0 UV-I 134 W/m 18,0 km/h (3 Bft)
17.01.2014 12:52 9,9 C 8,9 C 77 % 999,2 hPa 0,0 l/m 2 min 0 min 0,0 UV-I 188 W/m 10,3 km/h (2 Bft)
17.01.2014 12:54 10,0 C 8,9 C 76 % 999,1 hPa 0,0 l/m 2 min 0 min 0,0 UV-I 253 W/m 28,3 km/h (4 Bft)
17.01.2014 12:56 10,1 C 8,9 C 76 % 999,2 hPa 0,0 l/m 2 min 0 min 0,0 UV-I 236 W/m 28,3 km/h (4 Bft)
17.01.2014 12:58 10,3 C 9,4 C 76 % 999,3 hPa 0,0 l/m 2 min 0 min 0,0 UV-I 288 W/m 20,6 km/h (4 Bft)
17.01.2014 13:00 10,3 C 8,9 C 74 % 999,2 hPa 0,0 l/m 2 min 0 min 0,0 UV-I 320 W/m 23,2 km/h (4 Bft)
17.01.2014 13:02 10,5 C 9,4 C 75 % 999,1 hPa 0,0 l/m 2 min 0 min 0,0 UV-I 329 W/m 12,9 km/h (3 Bft)
17.01.2014 13:04 10,6 C 8,9 C 74 % 999,1 hPa 0,0 l/m 2 min 0 min 0,0 UV-I 297 W/m 28,3 km/h (4 Bft)
17.01.2014 13:06 10,5 C 8,9 C 73 % 999,1 hPa 0,0 l/m 2 min 0 min 0,0 UV-I 290 W/m 20,6 km/h (4 Bft)
17.01.2014 13:08 10,5 C 8,9 C 73 % 999,1 hPa 0,0 l/m 2 min 0 min 0,0 UV-I 197 W/m 15,4 km/h (3 Bft)
17.01.2014 13:10 10,4 C 8,9 C 73 % 999,2 hPa 0,0 l/m 0 min 0 min 0,0 UV-I 141 W/m 18,0 km/h (3 Bft)
17.01.2014 13:12 10,3 C 8,9 C 73 % 999,1 hPa 0,0 l/m 2 min 0 min 0,0 UV-I 290 W/m 15,4 km/h (3 Bft)
17.01.2014 13:14 10,3 C 8,9 C 74 % 999,1 hPa 0,0 l/m 0 min 0 min 0,0 UV-I 128 W/m 12,9 km/h (3 Bft)
17.01.2014 13:16 10,3 C 8,9 C 74 % 999,1 hPa 0,0 l/m 2 min 0 min 0,0 UV-I 220 W/m 28,3 km/h (4 Bft)
17.01.2014 13:18 10,3 C 8,9 C 74 % 999,1 hPa 0,0 l/m 0 min 0 min 0,0 UV-I 91 W/m 20,6 km/h (4 Bft)
17.01.2014 13:20 10,2 C 8,9 C 74 % 999,0 hPa 0,0 l/m 0 min 0 min 0,0 UV-I 90 W/m 28,3 km/h (4 Bft)
17.01.2014 13:22 10,1 C 8,9 C 74 % 999,0 hPa 0,0 l/m 0 min 0 min 0,0 UV-I 95 W/m 20,6 km/h (4 Bft)
17.01.2014 13:24 10,0 C 8,9 C 74 % 999,0 hPa 0,0 l/m 0 min 0 min 0,0 UV-I 86 W/m 20,6 km/h (4 Bft)
17.01.2014 13:26 9,9 C 8,9 C 74 % 999,0 hPa 0,0 l/m 0 min 0 min 0,0 UV-I 84 W/m 28,3 km/h (4 Bft)
17.01.2014 13:28 9,9 C 8,3 C 75 % 999,0 hPa 0,0 l/m 0 min 0 min 0,0 UV-I 70 W/m 23,2 km/h (4 Bft)
17.01.2014 13:30 9,9 C 8,3 C 74 % 999,0 hPa 0,0 l/m 0 min 0 min 0,0 UV-I 70 W/m 20,6 km/h (4 Bft)
17.01.2014 13:32 9,8 C 8,3 C 75 % 998,9 hPa 0,0 l/m 0 min 0 min 0,0 UV-I 70 W/m 20,6 km/h (4 Bft)
17.01.2014 13:34 9,8 C 8,3 C 75 % 999,0 hPa 0,0 l/m 0 min 0 min 0,0 UV-I 63 W/m 7,7 km/h (2 Bft)
17.01.2014 13:36 9,8 C 8,3 C 75 % 999,0 hPa 0,0 l/m 0 min 0 min 0,0 UV-I 65 W/m 10,3 km/h (2 Bft)
17.01.2014 13:38 9,8 C 8,9 C 75 % 998,9 hPa 0,0 l/m 0 min 0 min 0,0 UV-I 86 W/m 10,3 km/h (2 Bft)
17.01.2014 13:40 9,8 C 8,9 C 75 % 998,9 hPa 0,0 l/m 0 min 0 min 0,0 UV-I 95 W/m 18,0 km/h (3 Bft)
17.01.2014 13:42 9,8 C 8,9 C 75 % 999,0 hPa 0,0 l/m 0 min 0 min 0,0 UV-I 74 W/m 12,9 km/h (3 Bft)
17.01.2014 13:44 9,8 C 8,9 C 75 % 998,9 hPa 0,0 l/m 0 min 0 min 0,0 UV-I 62 W/m 23,2 km/h (4 Bft)
17.01.2014 13:46 9,8 C 8,3 C 74 % 998,9 hPa 0,0 l/m 0 min 0 min 0,0 UV-I 81 W/m 20,6 km/h (4 Bft)
17.01.2014 13:48 9,8 C 8,9 C 74 % 998,9 hPa 0,0 l/m 0 min 0 min 0,0 UV-I 91 W/m 15,4 km/h (3 Bft)
17.01.2014 13:50 9,9 C 8,9 C 74 % 998,9 hPa 0,0 l/m 0 min 0 min 0,0 UV-I 93 W/m 18,0 km/h (3 Bft)
17.01.2014 13:52 9,9 C 8,9 C 74 % 999,0 hPa 0,0 l/m 0 min 0 min 0,0 UV-I 95 W/m 23,2 km/h (4 Bft)
17.01.2014 13:54 9,9 C 8,9 C 74 % 998,9 hPa 0,0 l/m 0 min 0 min 0,0 UV-I 98 W/m 15,4 km/h (3 Bft)
17.01.2014 13:56 9,9 C 8,9 C 73 % 998,9 hPa 0,0 l/m 0 min 0 min 0,0 UV-I 121 W/m 23,2 km/h (4 Bft)
17.01.2014 13:58 10,0 C 8,9 C 74 % 998,8 hPa 0,0 l/m 0 min 0 min 0,0 UV-I 155 W/m 15,4 km/h (3 Bft)
17.01.2014 14:00 10,1 C 8,9 C 74 % 998,9 hPa 0,0 l/m 0 min 0 min 0,0 UV-I 139 W/m 28,3 km/h (4 Bft)
17.01.2014 14:02 10,1 C 8,9 C 73 % 998,9 hPa 0,0 l/m 0 min 0 min 0,0 UV-I 127 W/m 15,4 km/h (3 Bft)
17.01.2014 14:04 10,1 C 8,9 C 73 % 998,9 hPa 0,0 l/m 0 min 0 min 0,0 UV-I 116 W/m 10,3 km/h (2 Bft)
17.01.2014 14:06 10,2 C 9,4 C 74 % 998,9 hPa 0,0 l/m 2 min 0 min 0,0 UV-I 202 W/m 7,7 km/h (2 Bft)
17.01.2014 14:08 10,2 C 9,4 C 74 % 999,0 hPa 0,0 l/m 0 min 0 min 0,0 UV-I 151 W/m 18,0 km/h (3 Bft)
17.01.2014 14:10 10,3 C 9,4 C 73 % 998,9 hPa 0,0 l/m 2 min 0 min 0,0 UV-I 302 W/m 12,9 km/h (3 Bft)
17.01.2014 14:12 10,4 C 9,4 C 73 % 998,8 hPa 0,0 l/m 2 min 0 min 0,0 UV-I 253 W/m 20,6 km/h (4 Bft)
17.01.2014 14:14 10,6 C 9,4 C 73 % 998,9 hPa 0,0 l/m 2 min 0 min 0,0 UV-I 253 W/m 7,7 km/h (2 Bft)
17.01.2014 14:16 10,6 C 9,4 C 73 % 998,9 hPa 0,0 l/m 2 min 0 min 0,0 UV-I 250 W/m 20,6 km/h (4 Bft)
17.01.2014 14:18 10,6 C 8,9 C 72 % 998,8 hPa 0,0 l/m 0 min 0 min 0,0 UV-I 95 W/m 25,7 km/h (4 Bft)
17.01.2014 14:20 10,5 C 8,9 C 72 % 998,8 hPa 0,0 l/m 0 min 0 min 0,0 UV-I 118 W/m 15,4 km/h (3 Bft)
17.01.2014 14:22 10,5 C 8,9 C 72 % 998,8 hPa 0,0 l/m 2 min 0 min 0,0 UV-I 269 W/m 12,9 km/h (3 Bft)
17.01.2014 14:24 10,5 C 9,4 C 73 % 998,8 hPa 0,0 l/m 2 min 0 min 0,0 UV-I 204 W/m 12,9 km/h (3 Bft)
17.01.2014 14:26 10,5 C 8,9 C 73 % 998,7 hPa 0,0 l/m 0 min 0 min 0,0 UV-I 104 W/m 20,6 km/h (4 Bft)
17.01.2014 14:28 10,4 C 8,9 C 72 % 998,7 hPa 0,0 l/m 2 min 0 min 0,0 UV-I 188 W/m 12,9 km/h (3 Bft)
17.01.2014 14:30 10,4 C 8,9 C 72 % 998,7 hPa 0,0 l/m 2 min 0 min 0,0 UV-I 156 W/m 18,0 km/h (3 Bft)
17.01.2014 14:32 10,4 C 9,4 C 72 % 998,8 hPa 0,0 l/m 2 min 0 min 0,0 UV-I 156 W/m 15,4 km/h (3 Bft)
17.01.2014 14:34 10,5 C 9,4 C 73 % 998,7 hPa 0,0 l/m 2 min 0 min 0,0 UV-I 146 W/m 12,9 km/h (3 Bft)
17.01.2014 14:36 10,5 C 9,4 C 72 % 998,8 hPa 0,0 l/m 2 min 0 min 0,0 UV-I 248 W/m 10,3 km/h (2 Bft)
17.01.2014 14:38 10,6 C 9,4 C 73 % 998,7 hPa 0,0 l/m 2 min 0 min 0,0 UV-I 195 W/m 10,3 km/h (2 Bft)
17.01.2014 14:40 10,7 C 9,4 C 72 % 998,7 hPa 0,0 l/m 0 min 0 min 0,0 UV-I 120 W/m 12,9 km/h (3 Bft)
17.01.2014 14:42 10,7 C 9,4 C 72 % 998,7 hPa 0,0 l/m 2 min 0 min 0,0 UV-I 232 W/m 10,3 km/h (2 Bft)
17.01.2014 14:44 10,7 C 9,4 C 72 % 998,7 hPa 0,0 l/m 2 min 0 min 0,0 UV-I 232 W/m 15,4 km/h (3 Bft)
17.01.2014 14:46 10,7 C 9,4 C 71 % 998,7 hPa 0,0 l/m 2 min 0 min 0,0 UV-I 239 W/m 23,2 km/h (4 Bft)
17.01.2014 14:48 10,7 C 9,4 C 71 % 998,7 hPa 0,0 l/m 2 min 0 min 0,0 UV-I 202 W/m 18,0 km/h (3 Bft)
17.01.2014 14:50 10,8 C 9,4 C 71 % 998,7 hPa 0,0 l/m 0 min 0 min 0,0 UV-I 125 W/m 15,4 km/h (3 Bft)
17.01.2014 14:52 10,7 C 9,4 C 71 % 998,8 hPa 0,0 l/m 2 min 0 min 0,0 UV-I 183 W/m 10,3 km/h (2 Bft)
17.01.2014 14:54 10,7 C 8,9 C 71 % 998,8 hPa 0,0 l/m 2 min 0 min 0,0 UV-I 185 W/m 10,3 km/h (2 Bft)
17.01.2014 14:56 10,7 C 8,9 C 72 % 998,8 hPa 0,0 l/m 0 min 0 min 0,0 UV-I 111 W/m 10,3 km/h (2 Bft)
17.01.2014 14:58 10,6 C 8,9 C 72 % 998,7 hPa 0,0 l/m 0 min 0 min 0,0 UV-I 62 W/m 18,0 km/h (3 Bft)
17.01.2014 15:00 10,5 C 8,9 C 72 % 998,7 hPa 0,0 l/m 0 min 0 min 0,0 UV-I 70 W/m 18,0 km/h (3 Bft)
17.01.2014 15:02 10,4 C 8,9 C 72 % 998,8 hPa 0,0 l/m 0 min 0 min 0,0 UV-I 62 W/m 12,9 km/h (3 Bft)
17.01.2014 15:04 10,4 C 8,9 C 72 % 998,8 hPa 0,0 l/m 0 min 0 min 0,0 UV-I 72 W/m 25,7 km/h (4 Bft)
17.01.2014 15:06 10,3 C 8,9 C 72 % 998,8 hPa 0,0 l/m 0 min 0 min 0,0 UV-I 74 W/m 10,3 km/h (2 Bft)
17.01.2014 15:08 10,3 C 8,9 C 72 % 998,8 hPa 0,0 l/m 0 min 0 min 0,0 UV-I 79 W/m 20,6 km/h (4 Bft)
17.01.2014 15:10 10,2 C 8,9 C 72 % 998,8 hPa 0,0 l/m 0 min 0 min 0,0 UV-I 83 W/m 10,3 km/h (2 Bft)
17.01.2014 15:12 10,2 C 8,9 C 72 % 998,8 hPa 0,0 l/m 0 min 0 min 0,0 UV-I 72 W/m 7,7 km/h (2 Bft)
17.01.2014 15:14 10,3 C 8,9 C 73 % 998,8 hPa 0,0 l/m 0 min 0 min 0,0 UV-I 63 W/m 15,4 km/h (3 Bft)
17.01.2014 15:16 10,2 C 8,9 C 73 % 998,9 hPa 0,0 l/m 0 min 0 min 0,0 UV-I 65 W/m 12,9 km/h (3 Bft)
17.01.2014 15:18 10,2 C 8,9 C 73 % 998,8 hPa 0,0 l/m 0 min 0 min 0,0 UV-I 51 W/m 12,9 km/h (3 Bft)
17.01.2014 15:20 10,2 C 8,9 C 73 % 998,8 hPa 0,0 l/m 0 min 0 min 0,0 UV-I 39 W/m 18,0 km/h (3 Bft)
17.01.2014 15:22 10,2 C 8,9 C 73 % 998,8 hPa 0,0 l/m 0 min 0 min 0,0 UV-I 39 W/m 7,7 km/h (2 Bft)
17.01.2014 15:24 10,2 C 8,9 C 73 % 999,0 hPa 0,0 l/m 0 min 0 min 0,0 UV-I 37 W/m 15,4 km/h (3 Bft)
17.01.2014 15:26 10,2 C 8,9 C 73 % 998,8 hPa 0,0 l/m 0 min 0 min 0,0 UV-I 26 W/m 20,6 km/h (4 Bft)
17.01.2014 15:28 10,2 C 8,3 C 73 % 998,8 hPa 0,0 l/m 0 min 0 min 0,0 UV-I 25 W/m 15,4 km/h (3 Bft)
17.01.2014 15:30 10,2 C 8,3 C 73 % 998,8 hPa 0,0 l/m 0 min 0 min 0,0 UV-I 23 W/m 10,3 km/h (2 Bft)
17.01.2014 15:32 10,1 C 8,3 C 73 % 998,9 hPa 0,0 l/m 0 min 0 min 0,0 UV-I 49 W/m 12,9 km/h (3 Bft)
17.01.2014 15:34 10,1 C 8,3 C 73 % 998,8 hPa 0,0 l/m 0 min 0 min 0,0 UV-I 46 W/m 15,4 km/h (3 Bft)
17.01.2014 15:36 10,1 C 8,3 C 73 % 998,8 hPa 0,0 l/m 0 min 0 min 0,0 UV-I 51 W/m 10,3 km/h (2 Bft)
17.01.2014 15:38 10,1 C 8,3 C 74 % 998,8 hPa 0,0 l/m 0 min 0 min 0,0 UV-I 65 W/m 7,7 km/h (2 Bft)
17.01.2014 15:40 10,1 C 8,3 C 74 % 998,9 hPa 0,0 l/m 0 min 0 min 0,0 UV-I 69 W/m 5,1 km/h (1 Bft)
17.01.2014 15:42 10,1 C 8,3 C 73 % 998,9 hPa 0,0 l/m 0 min 0 min 0,0 UV-I 54 W/m 12,9 km/h (3 Bft)
17.01.2014 15:44 10,1 C 8,3 C 73 % 999,0 hPa 0,0 l/m 0 min 0 min 0,0 UV-I 53 W/m 10,3 km/h (2 Bft)
17.01.2014 15:46 10,1 C 8,3 C 73 % 999,0 hPa 0,0 l/m 0 min 0 min 0,0 UV-I 63 W/m 10,3 km/h (2 Bft)
17.01.2014 15:48 10,1 C 8,3 C 73 % 998,9 hPa 0,0 l/m 0 min 0 min 0,0 UV-I 58 W/m 15,4 km/h (3 Bft)
17.01.2014 15:50 10,1 C 8,3 C 73 % 999,0 hPa 0,0 l/m 0 min 0 min 0,0 UV-I 58 W/m 18,0 km/h (3 Bft)
17.01.2014 15:52 10,1 C 8,3 C 73 % 998,9 hPa 0,0 l/m 0 min 0 min 0,0 UV-I 60 W/m 7,7 km/h (2 Bft)
17.01.2014 15:54 10,1 C 8,3 C 73 % 998,9 hPa 0,0 l/m 0 min 0 min 0,0 UV-I 62 W/m 18,0 km/h (3 Bft)
17.01.2014 15:56 10,1 C 8,3 C 73 % 999,0 hPa 0,0 l/m 0 min 0 min 0,0 UV-I 58 W/m 20,6 km/h (4 Bft)
17.01.2014 15:58 10,1 C 8,3 C 73 % 999,0 hPa 0,0 l/m 0 min 0 min 0,0 UV-I 54 W/m 18,0 km/h (3 Bft)
17.01.2014 16:00 10,1 C 8,3 C 73 % 999,0 hPa 0,0 l/m 0 min 0 min 0,0 UV-I 53 W/m 23,2 km/h (4 Bft)
17.01.2014 16:02 10,1 C 8,3 C 73 % 999,0 hPa 0,0 l/m 0 min 0 min 0,0 UV-I 47 W/m 15,4 km/h (3 Bft)
17.01.2014 16:04 10,1 C 8,3 C 73 % 999,0 hPa 0,0 l/m 0 min 0 min 0,0 UV-I 44 W/m 10,3 km/h (2 Bft)
17.01.2014 16:06 10,1 C 8,3 C 73 % 998,9 hPa 0,0 l/m 0 min 0 min 0,0 UV-I 33 W/m 7,7 km/h (2 Bft)
17.01.2014 16:08 10,1 C 8,3 C 73 % 998,8 hPa 0,0 l/m 0 min 0 min 0,0 UV-I 26 W/m 15,4 km/h (3 Bft)
17.01.2014 16:10 9,9 C 7,8 C 74 % 998,8 hPa 0,0 l/m 0 min 0 min 0,0 UV-I 26 W/m 10,3 km/h (2 Bft)
17.01.2014 16:12 9,9 C 7,8 C 73 % 998,8 hPa 0,0 l/m 0 min 0 min 0,0 UV-I 28 W/m 15,4 km/h (3 Bft)
17.01.2014 16:14 9,8 C 7,8 C 74 % 998,7 hPa 0,0 l/m 0 min 0 min 0,0 UV-I 28 W/m 7,7 km/h (2 Bft)
17.01.2014 16:16 9,7 C 7,8 C 74 % 998,8 hPa 0,0 l/m 0 min 0 min 0,0 UV-I 28 W/m 7,7 km/h (2 Bft)
17.01.2014 16:18 9,7 C 7,2 C 74 % 998,7 hPa 0,0 l/m 0 min 0 min 0,0 UV-I 26 W/m 10,3 km/h (2 Bft)
17.01.2014 16:20 9,6 C 7,2 C 75 % 998,7 hPa 0,0 l/m 0 min 0 min 0,0 UV-I 26 W/m 7,7 km/h (2 Bft)
17.01.2014 16:22 9,6 C 7,2 C 75 % 998,8 hPa 0,0 l/m 0 min 0 min 0,0 UV-I 25 W/m 12,9 km/h (3 Bft)
17.01.2014 16:24 9,4 C 7,2 C 75 % 998,8 hPa 0,0 l/m 0 min 0 min 0,0 UV-I 23 W/m 0,0 km/h (0 Bft)
17.01.2014 16:26 9,3 C 7,2 C 76 % 998,8 hPa 0,0 l/m 0 min 0 min 0,0 UV-I 23 W/m 10,3 km/h (2 Bft)
17.01.2014 16:28 9,3 C 7,2 C 76 % 998,8 hPa 0,0 l/m 0 min 0 min 0,0 UV-I 21 W/m 10,3 km/h (2 Bft)
17.01.2014 16:30 9,3 C 7,2 C 76 % 998,8 hPa 0,0 l/m 0 min 0 min 0,0 UV-I 19 W/m 20,6 km/h (4 Bft)
17.01.2014 16:32 9,3 C 7,2 C 76 % 998,8 hPa 0,0 l/m 0 min 0 min 0,0 UV-I 18 W/m 12,9 km/h (3 Bft)
17.01.2014 16:34 9,3 C 7,2 C 76 % 998,8 hPa 0,0 l/m 0 min 0 min 0,0 UV-I 16 W/m 10,3 km/h (2 Bft)
17.01.2014 16:36 9,3 C 7,2 C 76 % 998,8 hPa 0,0 l/m 0 min 0 min 0,0 UV-I 14 W/m 15,4 km/h (3 Bft)
17.01.2014 16:38 9,3 C 7,2 C 76 % 998,8 hPa 0,0 l/m 0 min 0 min 0,0 UV-I 12 W/m 12,9 km/h (3 Bft)
17.01.2014 16:40 9,3 C 7,2 C 76 % 998,9 hPa 0,0 l/m 0 min 0 min 0,0 UV-I 11 W/m 18,0 km/h (3 Bft)
17.01.2014 16:42 9,3 C 7,2 C 76 % 998,9 hPa 0,0 l/m 0 min 0 min 0,0 UV-I 9 W/m 10,3 km/h (2 Bft)
17.01.2014 16:44 9,3 C 7,2 C 76 % 998,8 hPa 0,0 l/m 0 min 0 min 0,0 UV-I 9 W/m 10,3 km/h (2 Bft)
17.01.2014 16:46 9,3 C 7,2 C 76 % 998,9 hPa 0,0 l/m 0 min 0 min 0,0 UV-I 7 W/m 12,9 km/h (3 Bft)
17.01.2014 16:48 9,3 C 7,2 C 76 % 998,9 hPa 0,0 l/m 0 min 0 min 0,0 UV-I 5 W/m 2,6 km/h (1 Bft)
17.01.2014 16:50 9,3 C 7,2 C 77 % 999,0 hPa 0,0 l/m 0 min 0 min 0,0 UV-I 0 W/m 0,0 km/h (0 Bft)
17.01.2014 16:52 9,3 C 7,2 C 77 % 999,1 hPa 0,0 l/m 0 min 0 min 0,0 UV-I 0 W/m 0,0 km/h (0 Bft)
17.01.2014 16:54 9,2 C 7,2 C 77 % 999,0 hPa 0,0 l/m 0 min 0 min 0,0 UV-I 0 W/m 0,0 km/h (0 Bft)
17.01.2014 16:56 9,2 C 7,2 C 78 % 999,0 hPa 0,0 l/m 0 min 0 min 0,0 UV-I 0 W/m 10,3 km/h (2 Bft)
17.01.2014 16:58 9,2 C 7,2 C 78 % 999,0 hPa 0,0 l/m 0 min 0 min 0,0 UV-I 0 W/m 7,7 km/h (2 Bft)
17.01.2014 17:00 9,1 C 7,2 C 78 % 999,0 hPa 0,0 l/m 0 min 0 min 0,0 UV-I 0 W/m 10,3 km/h (2 Bft)
17.01.2014 17:02 9,1 C 7,2 C 78 % 999,1 hPa 0,0 l/m 0 min 0 min 0,0 UV-I 0 W/m 18,0 km/h (3 Bft)
17.01.2014 17:04 9,1 C 7,2 C 78 % 999,1 hPa 0,0 l/m 0 min 0 min 0,0 UV-I 0 W/m 18,0 km/h (3 Bft)
17.01.2014 17:06 9,1 C 7,2 C 78 % 999,1 hPa 0,0 l/m 0 min 0 min 0,0 UV-I 0 W/m 10,3 km/h (2 Bft)
17.01.2014 17:08 9,1 C 7,2 C 78 % 999,1 hPa 0,0 l/m 0 min 0 min 0,0 UV-I 0 W/m 20,6 km/h (4 Bft)
17.01.2014 17:10 9,1 C 7,2 C 77 % 999,1 hPa 0,0 l/m 0 min 0 min 0,0 UV-I 0 W/m 12,9 km/h (3 Bft)
17.01.2014 17:12 9,2 C 7,2 C 77 % 999,1 hPa 0,0 l/m 0 min 0 min 0,0 UV-I 0 W/m 18,0 km/h (3 Bft)
17.01.2014 17:14 9,2 C 7,2 C 77 % 999,0 hPa 0,0 l/m 0 min 0 min 0,0 UV-I 0 W/m 18,0 km/h (3 Bft)
17.01.2014 17:16 9,2 C 7,2 C 78 % 999,0 hPa 0,0 l/m 0 min 0 min 0,0 UV-I 0 W/m 15,4 km/h (3 Bft)
17.01.2014 17:18 9,1 C 7,2 C 77 % 999,1 hPa 0,0 l/m 0 min 0 min 0,0 UV-I 0 W/m 10,3 km/h (2 Bft)
17.01.2014 17:20 9,2 C 7,2 C 77 % 999,1 hPa 0,0 l/m 0 min 0 min 0,0 UV-I 0 W/m 12,9 km/h (3 Bft)
17.01.2014 17:22 9,1 C 7,2 C 77 % 999,1 hPa 0,0 l/m 0 min 0 min 0,0 UV-I 0 W/m 15,4 km/h (3 Bft)
17.01.2014 17:24 9,2 C 7,2 C 77 % 999,1 hPa 0,0 l/m 0 min 0 min 0,0 UV-I 0 W/m 0,0 km/h (0 Bft)
17.01.2014 17:26 9,1 C 7,2 C 78 % 999,2 hPa 0,0 l/m 0 min 0 min 0,0 UV-I 0 W/m 7,7 km/h (2 Bft)
17.01.2014 17:28 9,1 C 7,2 C 78 % 999,1 hPa 0,0 l/m 0 min 0 min 0,0 UV-I 0 W/m 12,9 km/h (3 Bft)
17.01.2014 17:30 9,1 C 7,2 C 78 % 999,1 hPa 0,0 l/m 0 min 0 min 0,0 UV-I 0 W/m 10,3 km/h (2 Bft)
17.01.2014 17:32 9,1 C 7,2 C 78 % 999,2 hPa 0,0 l/m 0 min 0 min 0,0 UV-I 0 W/m 15,4 km/h (3 Bft)
17.01.2014 17:34 9,1 C 7,2 C 77 % 999,2 hPa 0,0 l/m 0 min 0 min 0,0 UV-I 0 W/m 7,7 km/h (2 Bft)
17.01.2014 17:36 9,1 C 7,2 C 77 % 999,2 hPa 0,0 l/m 0 min 0 min 0,0 UV-I 0 W/m 12,9 km/h (3 Bft)
17.01.2014 17:38 9,1 C 7,2 C 77 % 999,1 hPa 0,0 l/m 0 min 0 min 0,0 UV-I 0 W/m 10,3 km/h (2 Bft)
17.01.2014 17:40 9,1 C 7,2 C 77 % 999,1 hPa 0,0 l/m 0 min 0 min 0,0 UV-I 0 W/m 12,9 km/h (3 Bft)
17.01.2014 17:42 9,0 C 7,2 C 77 % 999,1 hPa 0,0 l/m 0 min 0 min 0,0 UV-I 0 W/m 12,9 km/h (3 Bft)
17.01.2014 17:44 9,0 C 7,2 C 78 % 999,2 hPa 0,0 l/m 0 min 0 min 0,0 UV-I 0 W/m 25,7 km/h (4 Bft)
17.01.2014 17:46 9,0 C 7,2 C 78 % 999,2 hPa 0,0 l/m 0 min 0 min 0,0 UV-I 0 W/m 18,0 km/h (3 Bft)
17.01.2014 17:48 9,0 C 7,2 C 78 % 999,1 hPa 0,0 l/m 0 min 0 min 0,0 UV-I 0 W/m 12,9 km/h (3 Bft)
17.01.2014 17:50 9,0 C 7,2 C 78 % 999,0 hPa 0,0 l/m 0 min 0 min 0,0 UV-I 0 W/m 15,4 km/h (3 Bft)
17.01.2014 17:52 9,0 C 7,2 C 78 % 999,2 hPa 0,0 l/m 0 min 0 min 0,0 UV-I 0 W/m 18,0 km/h (3 Bft)
17.01.2014 17:54 9,0 C 7,2 C 78 % 999,2 hPa 0,0 l/m 0 min 0 min 0,0 UV-I 0 W/m 20,6 km/h (4 Bft)
17.01.2014 17:56 8,9 C 7,2 C 78 % 999,2 hPa 0,0 l/m 0 min 0 min 0,0 UV-I 0 W/m 23,2 km/h (4 Bft)
17.01.2014 17:58 8,9 C 7,2 C 78 % 999,2 hPa 0,0 l/m 0 min 0 min 0,0 UV-I 0 W/m 15,4 km/h (3 Bft)
17.01.2014 18:00 8,9 C 7,2 C 78 % 999,1 hPa 0,0 l/m 0 min 0 min 0,0 UV-I 0 W/m 15,4 km/h (3 Bft)
17.01.2014 18:02 8,9 C 7,2 C 77 % 999,2 hPa 0,0 l/m 0 min 0 min 0,0 UV-I 0 W/m 18,0 km/h (3 Bft)
17.01.2014 18:04 8,9 C 7,2 C 77 % 999,3 hPa 0,0 l/m 0 min 0 min 0,0 UV-I 0 W/m 18,0 km/h (3 Bft)
17.01.2014 18:06 8,9 C 7,2 C 77 % 999,2 hPa 0,0 l/m 0 min 0 min 0,0 UV-I 0 W/m 15,4 km/h (3 Bft)
17.01.2014 18:08 8,9 C 7,2 C 77 % 999,3 hPa 0,0 l/m 0 min 0 min 0,0 UV-I 0 W/m 25,7 km/h (4 Bft)
17.01.2014 18:10 8,9 C 7,2 C 77 % 999,2 hPa 0,0 l/m 0 min 0 min 0,0 UV-I 0 W/m 20,6 km/h (4 Bft)
17.01.2014 18:12 8,9 C 7,2 C 77 % 999,2 hPa 0,0 l/m 0 min 0 min 0,0 UV-I 0 W/m 12,9 km/h (3 Bft)
17.01.2014 18:14 8,9 C 7,2 C 77 % 999,2 hPa 0,0 l/m 0 min 0 min 0,0 UV-I 0 W/m 15,4 km/h (3 Bft)
17.01.2014 18:16 8,9 C 7,2 C 78 % 999,2 hPa 0,0 l/m 0 min 0 min 0,0 UV-I 0 W/m 15,4 km/h (3 Bft)
17.01.2014 18:18 8,9 C 7,2 C 78 % 999,2 hPa 0,0 l/m 0 min 0 min 0,0 UV-I 0 W/m 23,2 km/h (4 Bft)
17.01.2014 18:20 8,9 C 7,2 C 78 % 999,2 hPa 0,0 l/m 0 min 0 min 0,0 UV-I 0 W/m 15,4 km/h (3 Bft)
17.01.2014 18:22 8,9 C 7,2 C 78 % 999,3 hPa 0,0 l/m 0 min 0 min 0,0 UV-I 0 W/m 12,9 km/h (3 Bft)
17.01.2014 18:24 8,9 C 7,2 C 78 % 999,3 hPa 0,0 l/m 0 min 0 min 0,0 UV-I 0 W/m 15,4 km/h (3 Bft)
17.01.2014 18:26 8,9 C 7,2 C 78 % 999,3 hPa 0,0 l/m 0 min 0 min 0,0 UV-I 0 W/m 18,0 km/h (3 Bft)
17.01.2014 18:28 8,9 C 7,2 C 78 % 999,3 hPa 0,0 l/m 0 min 0 min 0,0 UV-I 0 W/m 10,3 km/h (2 Bft)
17.01.2014 18:30 8,8 C 7,2 C 78 % 999,3 hPa 0,0 l/m 0 min 0 min 0,0 UV-I 0 W/m 10,3 km/h (2 Bft)
17.01.2014 18:32 8,8 C 7,2 C 79 % 999,2 hPa 0,0 l/m 0 min 0 min 0,0 UV-I 0 W/m 20,6 km/h (4 Bft)
17.01.2014 18:34 8,8 C 7,2 C 79 % 999,2 hPa 0,0 l/m 0 min 0 min 0,0 UV-I 0 W/m 12,9 km/h (3 Bft)
17.01.2014 18:36 8,8 C 7,2 C 79 % 999,2 hPa 0,0 l/m 0 min 0 min 0,0 UV-I 0 W/m 10,3 km/h (2 Bft)
17.01.2014 18:38 8,8 C 7,2 C 79 % 999,3 hPa 0,0 l/m 0 min 0 min 0,0 UV-I 0 W/m 25,7 km/h (4 Bft)
17.01.2014 18:40 8,8 C 7,2 C 79 % 999,3 hPa 0,0 l/m 0 min 0 min 0,0 UV-I 0 W/m 20,6 km/h (4 Bft)
17.01.2014 18:42 8,8 C 7,2 C 79 % 999,3 hPa 0,0 l/m 0 min 0 min 0,0 UV-I 0 W/m 15,4 km/h (3 Bft)
17.01.2014 18:44 8,8 C 7,2 C 79 % 999,3 hPa 0,0 l/m 0 min 0 min 0,0 UV-I 0 W/m 15,4 km/h (3 Bft)
17.01.2014 18:46 8,8 C 6,7 C 79 % 999,3 hPa 0,0 l/m 0 min 0 min 0,0 UV-I 0 W/m 10,3 km/h (2 Bft)
17.01.2014 18:48 8,7 C 6,7 C 79 % 999,3 hPa 0,0 l/m 0 min 0 min 0,0 UV-I 0 W/m 12,9 km/h (3 Bft)
17.01.2014 18:50 8,7 C 6,7 C 79 % 999,3 hPa 0,0 l/m 0 min 0 min 0,0 UV-I 0 W/m 23,2 km/h (4 Bft)
17.01.2014 18:52 8,7 C 6,7 C 79 % 999,2 hPa 0,0 l/m 0 min 0 min 0,0 UV-I 0 W/m 12,9 km/h (3 Bft)
17.01.2014 18:54 8,7 C 6,7 C 79 % 999,3 hPa 0,0 l/m 0 min 0 min 0,0 UV-I 0 W/m 15,4 km/h (3 Bft)
17.01.2014 18:56 8,7 C 7,2 C 80 % 999,3 hPa 0,0 l/m 0 min 0 min 0,0 UV-I 0 W/m 15,4 km/h (3 Bft)
17.01.2014 18:58 8,7 C 7,2 C 80 % 999,3 hPa 0,0 l/m 0 min 0 min 0,0 UV-I 0 W/m 18,0 km/h (3 Bft)
17.01.2014 19:00 8,7 C 7,2 C 80 % 999,3 hPa 0,0 l/m 0 min 0 min 0,0 UV-I 0 W/m 18,0 km/h (3 Bft)
17.01.2014 19:02 8,8 C 6,7 C 80 % 999,3 hPa 0,0 l/m 0 min 0 min 0,0 UV-I 0 W/m 20,6 km/h (4 Bft)
17.01.2014 19:04 8,7 C 6,7 C 80 % 999,3 hPa 0,0 l/m 0 min 0 min 0,0 UV-I 0 W/m 15,4 km/h (3 Bft)
17.01.2014 19:06 8,7 C 6,7 C 80 % 999,4 hPa 0,0 l/m 0 min 0 min 0,0 UV-I 0 W/m 18,0 km/h (3 Bft)
17.01.2014 19:08 8,7 C 6,7 C 80 % 999,4 hPa 0,0 l/m 0 min 0 min 0,0 UV-I 0 W/m 18,0 km/h (3 Bft)
17.01.2014 19:10 8,7 C 6,7 C 80 % 999,4 hPa 0,0 l/m 0 min 0 min 0,0 UV-I 0 W/m 20,6 km/h (4 Bft)
17.01.2014 19:12 8,7 C 6,7 C 80 % 999,4 hPa 0,0 l/m 0 min 0 min 0,0 UV-I 0 W/m 20,6 km/h (4 Bft)
17.01.2014 19:14 8,7 C 6,7 C 80 % 999,3 hPa 0,0 l/m 0 min 0 min 0,0 UV-I 0 W/m 18,0 km/h (3 Bft)
17.01.2014 19:16 8,7 C 6,7 C 80 % 999,3 hPa 0,0 l/m 0 min 0 min 0,0 UV-I 0 W/m 20,6 km/h (4 Bft)
17.01.2014 19:18 8,7 C 6,7 C 80 % 999,3 hPa 0,0 l/m 0 min 0 min 0,0 UV-I 0 W/m 18,0 km/h (3 Bft)
17.01.2014 19:20 8,7 C 6,7 C 80 % 999,4 hPa 0,0 l/m 0 min 0 min 0,0 UV-I 0 W/m 20,6 km/h (4 Bft)
17.01.2014 19:22 8,7 C 6,7 C 80 % 999,4 hPa 0,0 l/m 0 min 0 min 0,0 UV-I 0 W/m 15,4 km/h (3 Bft)
17.01.2014 19:24 8,7 C 6,7 C 81 % 999,4 hPa 0,0 l/m 0 min 0 min 0,0 UV-I 0 W/m 12,9 km/h (3 Bft)
17.01.2014 19:26 8,7 C 6,7 C 81 % 999,4 hPa 0,0 l/m 0 min 0 min 0,0 UV-I 0 W/m 30,9 km/h (5 Bft)
17.01.2014 19:28 8,7 C 6,7 C 81 % 999,4 hPa 0,0 l/m 0 min 0 min 0,0 UV-I 0 W/m 28,3 km/h (4 Bft)
17.01.2014 19:30 8,7 C 6,7 C 81 % 999,4 hPa 0,0 l/m 0 min 0 min 0,0 UV-I 0 W/m 10,3 km/h (2 Bft)
17.01.2014 19:32 8,7 C 6,7 C 80 % 999,4 hPa 0,0 l/m 0 min 0 min 0,0 UV-I 0 W/m 20,6 km/h (4 Bft)
17.01.2014 19:34 8,7 C 6,7 C 80 % 999,5 hPa 0,0 l/m 0 min 0 min 0,0 UV-I 0 W/m 23,2 km/h (4 Bft)
17.01.2014 19:36 8,7 C 7,2 C 80 % 999,5 hPa 0,0 l/m 0 min 0 min 0,0 UV-I 0 W/m 23,2 km/h (4 Bft)
17.01.2014 19:38 8,7 C 6,7 C 80 % 999,5 hPa 0,0 l/m 0 min 0 min 0,0 UV-I 0 W/m 18,0 km/h (3 Bft)
17.01.2014 19:40 8,7 C 6,7 C 81 % 999,5 hPa 0,0 l/m 0 min 0 min 0,0 UV-I 0 W/m 15,4 km/h (3 Bft)
17.01.2014 19:42 8,7 C 6,7 C 80 % 999,5 hPa 0,0 l/m 0 min 0 min 0,0 UV-I 0 W/m 33,5 km/h (5 Bft)
17.01.2014 19:44 8,7 C 6,7 C 80 % 999,5 hPa 0,0 l/m 0 min 0 min 0,0 UV-I 0 W/m 18,0 km/h (3 Bft)
17.01.2014 19:46 8,7 C 6,7 C 80 % 999,5 hPa 0,0 l/m 0 min 0 min 0,0 UV-I 0 W/m 18,0 km/h (3 Bft)
17.01.2014 19:48 8,7 C 6,7 C 80 % 999,5 hPa 0,0 l/m 0 min 0 min 0,0 UV-I 0 W/m 20,6 km/h (4 Bft)
17.01.2014 19:50 8,7 C 6,7 C 80 % 999,6 hPa 0,0 l/m 0 min 0 min 0,0 UV-I 0 W/m 23,2 km/h (4 Bft)
17.01.2014 19:52 8,7 C 6,7 C 80 % 999,6 hPa 0,0 l/m 0 min 0 min 0,0 UV-I 0 W/m 12,9 km/h (3 Bft)
17.01.2014 19:54 8,7 C 6,7 C 80 % 999,6 hPa 0,0 l/m 0 min 0 min 0,0 UV-I 0 W/m 23,2 km/h (4 Bft)
17.01.2014 19:56 8,7 C 6,7 C 80 % 999,6 hPa 0,0 l/m 0 min 0 min 0,0 UV-I 0 W/m 15,4 km/h (3 Bft)
17.01.2014 19:58 8,7 C 6,7 C 80 % 999,7 hPa 0,0 l/m 0 min 0 min 0,0 UV-I 0 W/m 25,7 km/h (4 Bft)
17.01.2014 20:00 8,7 C 6,7 C 80 % 999,7 hPa 0,0 l/m 0 min 0 min 0,0 UV-I 0 W/m 12,9 km/h (3 Bft)
17.01.2014 20:02 8,7 C 6,7 C 80 % 999,7 hPa 0,0 l/m 0 min 0 min 0,0 UV-I 0 W/m 23,2 km/h (4 Bft)
17.01.2014 20:04 8,7 C 6,7 C 80 % 999,8 hPa 0,0 l/m 0 min 0 min 0,0 UV-I 0 W/m 7,7 km/h (2 Bft)
17.01.2014 20:06 8,7 C 6,7 C 80 % 999,7 hPa 0,0 l/m 0 min 0 min 0,0 UV-I 0 W/m 20,6 km/h (4 Bft)
17.01.2014 20:08 8,7 C 6,7 C 80 % 999,7 hPa 0,0 l/m 0 min 0 min 0,0 UV-I 0 W/m 10,3 km/h (2 Bft)
17.01.2014 20:10 8,7 C 6,7 C 80 % 999,8 hPa 0,0 l/m 0 min 0 min 0,0 UV-I 0 W/m 18,0 km/h (3 Bft)
17.01.2014 20:12 8,7 C 6,7 C 80 % 999,8 hPa 0,0 l/m 0 min 0 min 0,0 UV-I 0 W/m 20,6 km/h (4 Bft)
17.01.2014 20:14 8,6 C 6,7 C 80 % 999,8 hPa 0,0 l/m 0 min 0 min 0,0 UV-I 0 W/m 15,4 km/h (3 Bft)
17.01.2014 20:16 8,6 C 6,7 C 80 % 999,8 hPa 0,0 l/m 0 min 0 min 0,0 UV-I 0 W/m 12,9 km/h (3 Bft)
17.01.2014 20:18 8,6 C 6,7 C 80 % 999,9 hPa 0,0 l/m 0 min 0 min 0,0 UV-I 0 W/m 25,7 km/h (4 Bft)
17.01.2014 20:20 8,6 C 6,7 C 80 % 999,9 hPa 0,0 l/m 0 min 0 min 0,0 UV-I 0 W/m 20,6 km/h (4 Bft)
17.01.2014 20:22 8,6 C 6,7 C 80 % 999,9 hPa 0,0 l/m 0 min 0 min 0,0 UV-I 0 W/m 15,4 km/h (3 Bft)
17.01.2014 20:24 8,6 C 6,7 C 80 % 999,9 hPa 0,0 l/m 0 min 0 min 0,0 UV-I 0 W/m 10,3 km/h (2 Bft)
17.01.2014 20:26 8,6 C 6,7 C 80 % 999,9 hPa 0,0 l/m 0 min 0 min 0,0 UV-I 0 W/m 10,3 km/h (2 Bft)
17.01.2014 20:28 8,6 C 6,7 C 80 % 999,9 hPa 0,0 l/m 0 min 0 min 0,0 UV-I 0 W/m 12,9 km/h (3 Bft)
17.01.2014 20:30 8,6 C 6,7 C 80 % 999,8 hPa 0,0 l/m 0 min 0 min 0,0 UV-I 0 W/m 12,9 km/h (3 Bft)
17.01.2014 20:32 8,6 C 6,7 C 80 % 999,9 hPa 0,0 l/m 0 min 0 min 0,0 UV-I 0 W/m 15,4 km/h (3 Bft)
17.01.2014 20:34 8,6 C 6,7 C 80 % 999,9 hPa 0,0 l/m 0 min 0 min 0,0 UV-I 0 W/m 15,4 km/h (3 Bft)
17.01.2014 20:36 8,6 C 6,7 C 80 % 1000,0 hPa 0,0 l/m 0 min 0 min 0,0 UV-I 0 W/m 15,4 km/h (3 Bft)
17.01.2014 20:38 8,6 C 6,7 C 80 % 999,9 hPa 0,0 l/m 0 min 0 min 0,0 UV-I 0 W/m 23,2 km/h (4 Bft)
17.01.2014 20:40 8,6 C 6,7 C 80 % 1000,0 hPa 0,0 l/m 0 min 0 min 0,0 UV-I 0 W/m 25,7 km/h (4 Bft)
17.01.2014 20:42 8,6 C 6,7 C 80 % 1000,0 hPa 0,0 l/m 0 min 0 min 0,0 UV-I 0 W/m 20,6 km/h (4 Bft)
17.01.2014 20:44 8,6 C 6,7 C 80 % 1000,0 hPa 0,0 l/m 0 min 0 min 0,0 UV-I 0 W/m 15,4 km/h (3 Bft)
17.01.2014 20:46 8,6 C 6,7 C 80 % 1000,0 hPa 0,0 l/m 0 min 0 min 0,0 UV-I 0 W/m 10,3 km/h (2 Bft)
17.01.2014 20:48 8,6 C 6,7 C 80 % 1000,0 hPa 0,0 l/m 0 min 0 min 0,0 UV-I 0 W/m 10,3 km/h (2 Bft)
17.01.2014 20:50 8,5 C 6,7 C 80 % 1000,0 hPa 0,0 l/m 0 min 0 min 0,0 UV-I 0 W/m 18,0 km/h (3 Bft)
17.01.2014 20:52 8,5 C 6,7 C 80 % 1000,0 hPa 0,0 l/m 0 min 0 min 0,0 UV-I 0 W/m 20,6 km/h (4 Bft)
17.01.2014 20:54 8,6 C 6,7 C 80 % 1000,1 hPa 0,0 l/m 0 min 0 min 0,0 UV-I 0 W/m 12,9 km/h (3 Bft)
17.01.2014 20:56 8,5 C 6,7 C 80 % 1000,0 hPa 0,0 l/m 0 min 0 min 0,0 UV-I 0 W/m 15,4 km/h (3 Bft)
17.01.2014 20:58 8,6 C 6,7 C 80 % 1000,1 hPa 0,0 l/m 0 min 0 min 0,0 UV-I 0 W/m 15,4 km/h (3 Bft)
17.01.2014 21:00 8,5 C 6,7 C 80 % 1000,1 hPa 0,0 l/m 0 min 0 min 0,0 UV-I 0 W/m 10,3 km/h (2 Bft)
17.01.2014 21:02 8,5 C 6,7 C 81 % 1000,2 hPa 0,0 l/m 0 min 0 min 0,0 UV-I 0 W/m 12,9 km/h (3 Bft)
17.01.2014 21:04 8,5 C 6,7 C 81 % 1000,2 hPa 0,0 l/m 0 min 0 min 0,0 UV-I 0 W/m 12,9 km/h (3 Bft)
17.01.2014 21:06 8,5 C 6,7 C 81 % 1000,3 hPa 0,0 l/m 0 min 2 min 0,0 UV-I 0 W/m 15,4 km/h (3 Bft)
17.01.2014 21:08 8,6 C 6,7 C 81 % 1000,2 hPa 0,0 l/m 0 min 2 min 0,0 UV-I 0 W/m 12,9 km/h (3 Bft)
17.01.2014 21:10 8,6 C 6,7 C 81 % 1000,2 hPa 0,0 l/m 0 min 2 min 0,0 UV-I 0 W/m 23,2 km/h (4 Bft)
17.01.2014 21:12 8,6 C 6,7 C 81 % 1000,2 hPa 0,0 l/m 0 min 2 min 0,0 UV-I 0 W/m 15,4 km/h (3 Bft)
17.01.2014 21:14 8,6 C 6,1 C 82 % 1000,1 hPa 0,0 l/m 0 min 2 min 0,0 UV-I 0 W/m 18,0 km/h (3 Bft)
17.01.2014 21:16 8,6 C 6,1 C 82 % 1000,3 hPa 0,0 l/m 0 min 2 min 0,0 UV-I 0 W/m 18,0 km/h (3 Bft)
17.01.2014 21:18 8,6 C 6,1 C 82 % 1000,2 hPa 0,0 l/m 0 min 2 min 0,0 UV-I 0 W/m 12,9 km/h (3 Bft)
17.01.2014 21:20 8,6 C 6,1 C 82 % 1000,2 hPa 0,0 l/m 0 min 2 min 0,0 UV-I 0 W/m 15,4 km/h (3 Bft)
17.01.2014 21:22 8,5 C 6,1 C 82 % 1000,2 hPa 0,0 l/m 0 min 2 min 0,0 UV-I 0 W/m 15,4 km/h (3 Bft)
17.01.2014 21:24 8,5 C 5,6 C 83 % 1000,1 hPa 0,0 l/m 0 min 2 min 0,0 UV-I 0 W/m 12,9 km/h (3 Bft)
17.01.2014 21:26 8,5 C 5,6 C 83 % 1000,1 hPa 0,0 l/m 0 min 2 min 0,0 UV-I 0 W/m 20,6 km/h (4 Bft)
17.01.2014 21:28 8,4 C 5,6 C 83 % 1000,1 hPa 0,0 l/m 0 min 2 min 0,0 UV-I 0 W/m 18,0 km/h (3 Bft)
17.01.2014 21:30 8,4 C 5,6 C 83 % 1000,1 hPa 0,0 l/m 0 min 0 min 0,0 UV-I 0 W/m 10,3 km/h (2 Bft)
17.01.2014 21:32 8,4 C 5,6 C 83 % 1000,1 hPa 0,0 l/m 0 min 0 min 0,0 UV-I 0 W/m 15,4 km/h (3 Bft)
17.01.2014 21:34 8,4 C 5,6 C 83 % 1000,2 hPa 0,0 l/m 0 min 0 min 0,0 UV-I 0 W/m 23,2 km/h (4 Bft)
17.01.2014 21:36 8,4 C 5,6 C 83 % 1000,2 hPa 0,0 l/m 0 min 0 min 0,0 UV-I 0 W/m 10,3 km/h (2 Bft)
17.01.2014 21:38 8,3 C 5,6 C 83 % 1000,2 hPa 0,0 l/m 0 min 0 min 0,0 UV-I 0 W/m 12,9 km/h (3 Bft)
17.01.2014 21:40 8,3 C 5,6 C 83 % 1000,2 hPa 0,0 l/m 0 min 2 min 0,0 UV-I 0 W/m 15,4 km/h (3 Bft)
17.01.2014 21:42 8,3 C 5,6 C 83 % 1000,2 hPa 0,0 l/m 0 min 2 min 0,0 UV-I 0 W/m 7,7 km/h (2 Bft)
17.01.2014 21:44 8,3 C 5,6 C 83 % 1000,1 hPa 0,0 l/m 0 min 0 min 0,0 UV-I 0 W/m 18,0 km/h (3 Bft)
17.01.2014 21:46 8,3 C 5,6 C 83 % 1000,1 hPa 0,0 l/m 0 min 0 min 0,0 UV-I 0 W/m 15,4 km/h (3 Bft)
17.01.2014 21:48 8,3 C 5,6 C 84 % 1000,2 hPa 0,0 l/m 0 min 2 min 0,0 UV-I 0 W/m 15,4 km/h (3 Bft)
17.01.2014 21:50 8,3 C 5,6 C 84 % 1000,2 hPa 0,0 l/m 0 min 2 min 0,0 UV-I 0 W/m 15,4 km/h (3 Bft)
17.01.2014 21:52 8,3 C 5,6 C 84 % 1000,3 hPa 0,0 l/m 0 min 2 min 0,0 UV-I 0 W/m 15,4 km/h (3 Bft)
17.01.2014 21:54 8,3 C 5,6 C 84 % 1000,3 hPa 0,0 l/m 0 min 2 min 0,0 UV-I 0 W/m 20,6 km/h (4 Bft)
17.01.2014 21:56 8,3 C 5,6 C 84 % 1000,3 hPa 0,0 l/m 0 min 2 min 0,0 UV-I 0 W/m 15,4 km/h (3 Bft)
17.01.2014 21:58 8,3 C 5,6 C 84 % 1000,3 hPa 0,0 l/m 0 min 2 min 0,0 UV-I 0 W/m 12,9 km/h (3 Bft)
17.01.2014 22:00 8,3 C 5,6 C 84 % 1000,3 hPa 0,0 l/m 0 min 2 min 0,0 UV-I 0 W/m 18,0 km/h (3 Bft)
17.01.2014 22:02 8,2 C 5,6 C 84 % 1000,3 hPa 0,0 l/m 0 min 2 min 0,0 UV-I 0 W/m 18,0 km/h (3 Bft)
17.01.2014 22:04 8,2 C 5,6 C 84 % 1000,3 hPa 0,0 l/m 0 min 2 min 0,0 UV-I 0 W/m 12,9 km/h (3 Bft)
17.01.2014 22:06 8,2 C 5,6 C 84 % 1000,3 hPa 0,0 l/m 0 min 2 min 0,0 UV-I 0 W/m 10,3 km/h (2 Bft)
17.01.2014 22:08 8,2 C 5,6 C 84 % 1000,3 hPa 0,0 l/m 0 min 2 min 0,0 UV-I 0 W/m 15,4 km/h (3 Bft)
17.01.2014 22:10 8,2 C 5,6 C 84 % 1000,4 hPa 0,0 l/m 0 min 2 min 0,0 UV-I 0 W/m 2,6 km/h (1 Bft)
17.01.2014 22:12 8,2 C 5,6 C 84 % 1000,4 hPa 0,0 l/m 0 min 2 min 0,0 UV-I 0 W/m 18,0 km/h (3 Bft)
17.01.2014 22:14 8,2 C 5,6 C 84 % 1000,4 hPa 0,0 l/m 0 min 2 min 0,0 UV-I 0 W/m 7,7 km/h (2 Bft)
17.01.2014 22:16 8,2 C 5,6 C 84 % 1000,4 hPa 0,0 l/m 0 min 0 min 0,0 UV-I 0 W/m 2,6 km/h (1 Bft)
17.01.2014 22:18 8,2 C 5,6 C 84 % 1000,4 hPa 0,0 l/m 0 min 0 min 0,0 UV-I 0 W/m 10,3 km/h (2 Bft)
17.01.2014 22:20 8,2 C 5,6 C 84 % 1000,3 hPa 0,0 l/m 0 min 0 min 0,0 UV-I 0 W/m 10,3 km/h (2 Bft)
17.01.2014 22:22 8,1 C 5,6 C 84 % 1000,4 hPa 0,0 l/m 0 min 0 min 0,0 UV-I 0 W/m 23,2 km/h (4 Bft)
17.01.2014 22:24 8,1 C 5,6 C 84 % 1000,4 hPa 0,0 l/m 0 min 0 min 0,0 UV-I 0 W/m 20,6 km/h (4 Bft)
17.01.2014 22:26 8,1 C 5,6 C 84 % 1000,5 hPa 0,0 l/m 0 min 0 min 0,0 UV-I 0 W/m 20,6 km/h (4 Bft)
17.01.2014 22:28 8,1 C 5,6 C 84 % 1000,5 hPa 0,0 l/m 0 min 0 min 0,0 UV-I 0 W/m 23,2 km/h (4 Bft)
17.01.2014 22:30 8,1 C 5,6 C 84 % 1000,6 hPa 0,0 l/m 0 min 0 min 0,0 UV-I 0 W/m 5,1 km/h (1 Bft)
17.01.2014 22:32 8,1 C 5,6 C 84 % 1000,6 hPa 0,0 l/m 0 min 0 min 0,0 UV-I 0 W/m 12,9 km/h (3 Bft)
17.01.2014 22:34 8,1 C 5,6 C 84 % 1000,6 hPa 0,0 l/m 0 min 0 min 0,0 UV-I 0 W/m 2,6 km/h (1 Bft)
17.01.2014 22:36 8,1 C 5,6 C 84 % 1000,5 hPa 0,0 l/m 0 min 0 min 0,0 UV-I 0 W/m 7,7 km/h (2 Bft)
17.01.2014 22:38 8,1 C 5,6 C 84 % 1000,6 hPa 0,0 l/m 0 min 0 min 0,0 UV-I 0 W/m 10,3 km/h (2 Bft)
17.01.2014 22:40 8,1 C 5,6 C 84 % 1000,7 hPa 0,0 l/m 0 min 0 min 0,0 UV-I 0 W/m 15,4 km/h (3 Bft)
17.01.2014 22:42 8,1 C 5,6 C 84 % 1000,7 hPa 0,0 l/m 0 min 0 min 0,0 UV-I 0 W/m 18,0 km/h (3 Bft)
17.01.2014 22:44 8,1 C 6,1 C 84 % 1000,6 hPa 0,0 l/m 0 min 0 min 0,0 UV-I 0 W/m 12,9 km/h (3 Bft)
17.01.2014 22:46 8,1 C 6,1 C 84 % 1000,6 hPa 0,0 l/m 0 min 0 min 0,0 UV-I 0 W/m 0,0 km/h (0 Bft)
17.01.2014 22:48 8,1 C 6,1 C 84 % 1000,7 hPa 0,0 l/m 0 min 0 min 0,0 UV-I 0 W/m 7,7 km/h (2 Bft)
17.01.2014 22:50 8,1 C 6,1 C 84 % 1000,7 hPa 0,0 l/m 0 min 0 min 0,0 UV-I 0 W/m 10,3 km/h (2 Bft)
17.01.2014 22:52 8,1 C 6,1 C 84 % 1000,7 hPa 0,0 l/m 0 min 0 min 0,0 UV-I 0 W/m 7,7 km/h (2 Bft)
17.01.2014 22:54 8,1 C 6,1 C 84 % 1000,7 hPa 0,0 l/m 0 min 0 min 0,0 UV-I 0 W/m 10,3 km/h (2 Bft)
17.01.2014 22:56 8,1 C 6,1 C 84 % 1000,8 hPa 0,0 l/m 0 min 0 min 0,0 UV-I 0 W/m 10,3 km/h (2 Bft)
17.01.2014 22:58 8,1 C 6,1 C 83 % 1000,8 hPa 0,0 l/m 0 min 0 min 0,0 UV-I 0 W/m 10,3 km/h (2 Bft)
17.01.2014 23:00 8,1 C 6,1 C 83 % 1000,8 hPa 0,0 l/m 0 min 0 min 0,0 UV-I 0 W/m 5,1 km/h (1 Bft)
17.01.2014 23:02 8,1 C 6,1 C 83 % 1000,8 hPa 0,0 l/m 0 min 0 min 0,0 UV-I 0 W/m 7,7 km/h (2 Bft)
17.01.2014 23:04 8,1 C 6,1 C 83 % 1000,8 hPa 0,0 l/m 0 min 0 min 0,0 UV-I 0 W/m 18,0 km/h (3 Bft)
17.01.2014 23:06 8,1 C 6,1 C 83 % 1000,8 hPa 0,0 l/m 0 min 0 min 0,0 UV-I 0 W/m 15,4 km/h (3 Bft)
17.01.2014 23:08 8,1 C 6,1 C 83 % 1000,8 hPa 0,0 l/m 0 min 0 min 0,0 UV-I 0 W/m 7,7 km/h (2 Bft)
17.01.2014 23:10 8,1 C 6,1 C 83 % 1000,8 hPa 0,0 l/m 0 min 0 min 0,0 UV-I 0 W/m 7,7 km/h (2 Bft)
17.01.2014 23:12 8,1 C 6,1 C 83 % 1000,8 hPa 0,0 l/m 0 min 0 min 0,0 UV-I 0 W/m 7,7 km/h (2 Bft)
17.01.2014 23:14 8,1 C 6,1 C 83 % 1000,8 hPa 0,0 l/m 0 min 0 min 0,0 UV-I 0 W/m 5,1 km/h (1 Bft)
17.01.2014 23:16 8,1 C 6,1 C 83 % 1000,8 hPa 0,0 l/m 0 min 0 min 0,0 UV-I 0 W/m 2,6 km/h (1 Bft)
17.01.2014 23:18 8,1 C 6,1 C 83 % 1000,8 hPa 0,0 l/m 0 min 0 min 0,0 UV-I 0 W/m 15,4 km/h (3 Bft)
17.01.2014 23:20 8,1 C 6,1 C 83 % 1000,8 hPa 0,0 l/m 0 min 0 min 0,0 UV-I 0 W/m 5,1 km/h (1 Bft)
17.01.2014 23:22 8,1 C 6,1 C 83 % 1000,8 hPa 0,0 l/m 0 min 0 min 0,0 UV-I 0 W/m 7,7 km/h (2 Bft)
17.01.2014 23:24 8,1 C 6,1 C 83 % 1000,8 hPa 0,0 l/m 0 min 0 min 0,0 UV-I 0 W/m 10,3 km/h (2 Bft)
17.01.2014 23:26 8,1 C 6,1 C 83 % 1000,9 hPa 0,0 l/m 0 min 0 min 0,0 UV-I 0 W/m 12,9 km/h (3 Bft)
17.01.2014 23:28 8,1 C 6,1 C 83 % 1001,0 hPa 0,0 l/m 0 min 0 min 0,0 UV-I 0 W/m 10,3 km/h (2 Bft)
17.01.2014 23:30 8,1 C 6,1 C 83 % 1000,9 hPa 0,0 l/m 0 min 0 min 0,0 UV-I 0 W/m 10,3 km/h (2 Bft)
17.01.2014 23:32 8,0 C 6,1 C 83 % 1000,9 hPa 0,0 l/m 0 min 0 min 0,0 UV-I 0 W/m 10,3 km/h (2 Bft)
17.01.2014 23:34 8,0 C 6,1 C 83 % 1000,9 hPa 0,0 l/m 0 min 0 min 0,0 UV-I 0 W/m 12,9 km/h (3 Bft)
17.01.2014 23:36 8,0 C 6,1 C 83 % 1000,9 hPa 0,0 l/m 0 min 0 min 0,0 UV-I 0 W/m 7,7 km/h (2 Bft)
17.01.2014 23:38 8,0 C 6,1 C 83 % 1000,9 hPa 0,0 l/m 0 min 0 min 0,0 UV-I 0 W/m 10,3 km/h (2 Bft)
17.01.2014 23:40 8,0 C 6,1 C 83 % 1000,9 hPa 0,0 l/m 0 min 0 min 0,0 UV-I 0 W/m 10,3 km/h (2 Bft)
17.01.2014 23:42 8,0 C 6,1 C 83 % 1001,0 hPa 0,0 l/m 0 min 0 min 0,0 UV-I 0 W/m 0,0 km/h (0 Bft)
17.01.2014 23:44 8,0 C 6,1 C 83 % 1001,0 hPa 0,0 l/m 0 min 0 min 0,0 UV-I 0 W/m 5,1 km/h (1 Bft)
17.01.2014 23:46 8,0 C 6,1 C 83 % 1000,9 hPa 0,0 l/m 0 min 0 min 0,0 UV-I 0 W/m 7,7 km/h (2 Bft)
17.01.2014 23:48 8,0 C 6,1 C 83 % 1001,0 hPa 0,0 l/m 0 min 0 min 0,0 UV-I 0 W/m 5,1 km/h (1 Bft)
17.01.2014 23:50 8,0 C 6,1 C 83 % 1001,0 hPa 0,0 l/m 0 min 0 min 0,0 UV-I 0 W/m 0,0 km/h (0 Bft)
17.01.2014 23:52 7,9 C 6,7 C 83 % 1001,1 hPa 0,0 l/m 0 min 0 min 0,0 UV-I 0 W/m 7,7 km/h (2 Bft)
17.01.2014 23:54 8,0 C 6,7 C 83 % 1001,0 hPa 0,0 l/m 0 min 0 min 0,0 UV-I 0 W/m 0,0 km/h (0 Bft)
17.01.2014 23:56 8,0 C 6,1 C 83 % 1001,0 hPa 0,0 l/m 0 min 0 min 0,0 UV-I 0 W/m 5,1 km/h (1 Bft)
17.01.2014 23:58 7,9 C 6,1 C 83 % 1001,0 hPa 0,0 l/m 0 min 0 min 0,0 UV-I 0 W/m 2,6 km/h (1 Bft)
_ Min-Zeit 02:38 01:56 14:46 00:26 - - - - - 01:08
Minimum _ 6,3 C 3,9 C 71 % 998,1 hPa - - - - - 0,0 km/h (0 Bft)
_ Max-Zeit 14:50 12:58 00:30 23:52 00:00 09:50 00:06 00:00 12:26 19:42
Maximum _ 10,8 C 9,4 C 90 % 1001,1 hPa 0,0 l/m 2 min 2 min 0,0 UV-I 348 W/m 33,5 km/h
S-SO (5 Bft)
Durchschnitt _ 8,2 C 6,5 C 82 % 999,1 hPa #0,0 l/m #1:32 h #1:06 h 0,0 UV-I 97 W/m 13,4 km/h (3 Bft)
© 2014 W. Hausmann